Wetterdaten: aktuell Donnerstag, 22.08.2019 15:44
Datum Zeit Temp. I. Temp. FH Temp. 2m Temp. 5cm Feuchte I. Feuchte FH Feuchte 2m Luftdruck Regen Wind Richtung Richtung Taupunkt Windchill Windben
22.08.2019 15:44 25,6 C 27,8 C 22,1 C 25,0 C 56 % 51 % 62 % 1026,6 hPa 0,0 l/m 2,9 km/h (1 Bft) O-NO 67 14,5 C 22,1 C 4,8 km/h (1 Bft)
22.08.2019 15:42 25,5 C 28,1 C 22,2 C 25,0 C 56 % 50 % 63 % 1026,6 hPa 0,0 l/m 2,7 km/h (1 Bft) N-NW 337 14,8 C 22,2 C 5,1 km/h (1 Bft)
22.08.2019 15:40 25,5 C 28,5 C 22,2 C 25,5 C 56 % 50 % 62 % 1026,9 hPa 0,0 l/m 2,4 km/h (1 Bft) O-NO 67 14,6 C 22,2 C 5,8 km/h (2 Bft)
22.08.2019 15:38 25,6 C 28,9 C 22,1 C 26,0 C 56 % 50 % 62 % 1026,9 hPa 0,0 l/m 2,1 km/h (1 Bft) S-SO 157 14,5 C 22,1 C 6,0 km/h (2 Bft)
22.08.2019 15:36 25,5 C 28,6 C 22,2 C 26,9 C 56 % 50 % 61 % 1026,9 hPa 0,0 l/m 2,1 km/h (1 Bft) S-SO 157 14,3 C 22,2 C 3,9 km/h (1 Bft)
22.08.2019 15:34 25,5 C 28,4 C 22,6 C 27,2 C 56 % 50 % 65 % 1026,9 hPa 0,0 l/m 2,4 km/h (1 Bft) SO 135 15,7 C 22,6 C 6,3 km/h (2 Bft)
22.08.2019 15:32 25,5 C 28,2 C 22,5 C 26,8 C 56 % 51 % 65 % 1026,9 hPa 0,0 l/m 2,6 km/h (1 Bft) S 180 15,6 C 22,5 C 3,1 km/h (1 Bft)
22.08.2019 15:30 25,5 C 28,2 C 22,3 C 26,4 C 56 % 51 % 65 % 1026,9 hPa 0,0 l/m 3,1 km/h (1 Bft) SO 135 15,4 C 22,3 C 10,4 km/h (2 Bft)
22.08.2019 15:28 25,5 C 28,1 C 22,0 C 26,4 C 56 % 51 % 63 % 1026,9 hPa 0,0 l/m 3,1 km/h (1 Bft) W-SW 247 14,6 C 22,0 C 0,0 km/h (0 Bft)
22.08.2019 15:26 25,5 C 27,9 C 22,0 C 26,1 C 56 % 51 % 63 % 1026,9 hPa 0,0 l/m 3,2 km/h (1 Bft) W-SW 247 14,6 C 22,0 C 4,6 km/h (1 Bft)
22.08.2019 15:24 25,5 C 27,9 C 22,1 C 25,9 C 56 % 51 % 62 % 1026,9 hPa 0,0 l/m 3,1 km/h (1 Bft) S-SO 157 14,5 C 22,1 C 3,4 km/h (1 Bft)
22.08.2019 15:22 25,5 C 28,1 C 22,4 C 25,9 C 56 % 51 % 63 % 1026,9 hPa 0,0 l/m 2,6 km/h (1 Bft) S-SO 157 15,0 C 22,4 C 10,9 km/h (2 Bft)
22.08.2019 15:20 25,5 C 28,2 C 22,4 C 25,9 C 56 % 51 % 63 % 1026,8 hPa 0,0 l/m 1,8 km/h (1 Bft) W 270 15,0 C 22,4 C 7,7 km/h (2 Bft)
22.08.2019 15:18 25,5 C 27,2 C 21,9 C 25,2 C 56 % 52 % 62 % 1026,8 hPa 0,0 l/m 1,6 km/h (1 Bft) W-SW 247 14,3 C 21,9 C 4,1 km/h (1 Bft)
22.08.2019 15:16 25,5 C 26,7 C 22,0 C 25,2 C 56 % 52 % 63 % 1026,8 hPa 0,0 l/m 1,8 km/h (1 Bft) O-SO 112 14,6 C 22,0 C 4,8 km/h (1 Bft)
22.08.2019 15:14 25,4 C 26,0 C 21,7 C 25,3 C 56 % 52 % 65 % 1026,8 hPa 0,0 l/m 1,9 km/h (1 Bft) S-SO 157 14,8 C 21,7 C 4,3 km/h (1 Bft)
22.08.2019 15:12 25,4 C 25,7 C 21,3 C 24,1 C 56 % 53 % 65 % 1026,8 hPa 0,0 l/m 1,8 km/h (1 Bft) W-NW 292 14,4 C 21,3 C 0,0 km/h (0 Bft)
22.08.2019 15:10 25,4 C 26,1 C 21,4 C 23,5 C 56 % 52 % 64 % 1026,8 hPa 0,0 l/m 1,9 km/h (1 Bft) S 180 14,3 C 21,4 C 0,0 km/h (0 Bft)
22.08.2019 15:08 25,4 C 26,2 C 21,8 C 24,6 C 56 % 52 % 63 % 1026,8 hPa 0,0 l/m 1,9 km/h (1 Bft) O-SO 112 14,4 C 21,8 C 7,2 km/h (2 Bft)
22.08.2019 15:06 25,4 C 26,7 C 21,8 C 25,1 C 56 % 52 % 63 % 1026,8 hPa 0,0 l/m 1,6 km/h (1 Bft) O-NO 67 14,4 C 21,8 C 5,8 km/h (2 Bft)
22.08.2019 15:04 25,4 C 27,1 C 22,0 C 26,4 C 56 % 52 % 63 % 1026,8 hPa 0,0 l/m 1,3 km/h (1 Bft) S 180 14,6 C 22,0 C 11,1 km/h (2 Bft)
22.08.2019 15:02 25,4 C 26,9 C 22,1 C 26,2 C 56 % 52 % 63 % 1026,8 hPa 0,0 l/m 1,1 km/h (1 Bft) S-SO 157 14,7 C 22,1 C 3,1 km/h (1 Bft)
22.08.2019 15:00 25,4 C 26,9 C 22,0 C 25,8 C 56 % 52 % 63 % 1027,1 hPa 0,0 l/m 1,6 km/h (1 Bft) O-NO 67 14,6 C 22,0 C 6,3 km/h (2 Bft)
22.08.2019 14:58 25,4 C 25,9 C 21,7 C 25,5 C 56 % 53 % 63 % 1027,1 hPa 0,0 l/m 1,8 km/h (1 Bft) N-NO 22 14,3 C 21,7 C 3,6 km/h (1 Bft)
22.08.2019 14:56 25,4 C 24,8 C 21,5 C 24,2 C 56 % 53 % 65 % 1027,1 hPa 0,0 l/m 1,4 km/h (1 Bft) O-NO 67 14,6 C 21,5 C 3,9 km/h (1 Bft)
22.08.2019 14:54 25,4 C 24,2 C 21,4 C 24,2 C 56 % 54 % 64 % 1027,1 hPa 0,0 l/m 1,6 km/h (1 Bft) W-NW 292 14,3 C 21,4 C 6,0 km/h (2 Bft)
22.08.2019 14:52 25,4 C 24,3 C 21,4 C 23,9 C 56 % 54 % 63 % 1027,1 hPa 0,0 l/m 1,4 km/h (1 Bft) N-NO 22 14,1 C 21,4 C 5,1 km/h (1 Bft)
22.08.2019 14:50 25,4 C 24,7 C 21,4 C 24,2 C 56 % 54 % 63 % 1027,1 hPa 0,0 l/m 1,6 km/h (1 Bft) O-NO 67 14,1 C 21,4 C 6,8 km/h (2 Bft)
22.08.2019 14:48 25,4 C 25,2 C 21,3 C 24,0 C 56 % 53 % 65 % 1027,1 hPa 0,0 l/m 1,6 km/h (1 Bft) SW 225 14,4 C 21,3 C 6,5 km/h (2 Bft)
22.08.2019 14:46 25,4 C 25,0 C 21,1 C 23,6 C 56 % 53 % 64 % 1027,1 hPa 0,0 l/m 1,6 km/h (1 Bft) N-NW 337 14,0 C 21,1 C 0,0 km/h (0 Bft)
22.08.2019 14:44 25,4 C 24,5 C 21,1 C 23,1 C 56 % 54 % 64 % 1027,1 hPa 0,0 l/m 1,8 km/h (1 Bft) NW 315 14,0 C 21,1 C 4,1 km/h (1 Bft)
22.08.2019 14:42 25,4 C 24,3 C 21,2 C 24,3 C 56 % 54 % 64 % 1027,1 hPa 0,0 l/m 1,6 km/h (1 Bft) NO 45 14,1 C 21,2 C 0,0 km/h (0 Bft)
22.08.2019 14:40 25,4 C 24,5 C 21,3 C 24,3 C 56 % 54 % 66 % 1027,0 hPa 0,0 l/m 1,4 km/h (1 Bft) O-NO 67 14,7 C 21,3 C 7,2 km/h (2 Bft)
22.08.2019 14:38 25,4 C 24,6 C 21,2 C 23,6 C 56 % 54 % 66 % 1027,0 hPa 0,0 l/m 1,3 km/h (1 Bft) NO 45 14,6 C 21,2 C 4,3 km/h (1 Bft)
22.08.2019 14:36 25,4 C 24,7 C 21,1 C 23,1 C 56 % 54 % 66 % 1027,0 hPa 0,0 l/m 1,1 km/h (1 Bft) NO 45 14,5 C 21,1 C 3,4 km/h (1 Bft)
22.08.2019 14:34 25,4 C 24,7 C 21,1 C 22,7 C 56 % 54 % 65 % 1027,0 hPa 0,0 l/m 0,8 km/h (0 Bft) SW 225 14,3 C 21,1 C 0,0 km/h (0 Bft)
22.08.2019 14:32 25,4 C 24,6 C 21,1 C 23,0 C 56 % 54 % 65 % 1027,0 hPa 0,0 l/m 0,8 km/h (0 Bft) O 90 14,3 C 21,1 C 3,1 km/h (1 Bft)
22.08.2019 14:30 25,4 C 24,5 C 21,1 C 23,3 C 56 % 54 % 63 % 1027,0 hPa 0,0 l/m 0,6 km/h (0 Bft) NO 45 13,8 C 21,1 C 3,1 km/h (1 Bft)
22.08.2019 14:28 25,4 C 24,6 C 21,3 C 23,5 C 56 % 54 % 66 % 1027,0 hPa 0,0 l/m 0,3 km/h (0 Bft) O-NO 67 14,7 C 21,3 C 2,9 km/h (1 Bft)
22.08.2019 14:26 25,4 C 25,0 C 21,3 C 23,8 C 56 % 53 % 66 % 1027,0 hPa 0,0 l/m 0,3 km/h (0 Bft) SO 135 14,7 C 21,3 C 3,1 km/h (1 Bft)
22.08.2019 14:24 25,4 C 25,1 C 21,3 C 24,2 C 56 % 53 % 66 % 1027,0 hPa 0,0 l/m 0,2 km/h (0 Bft) S-SO 157 14,7 C 21,3 C 0,0 km/h (0 Bft)
22.08.2019 14:22 25,4 C 25,0 C 21,4 C 24,6 C 56 % 53 % 66 % 1027,0 hPa 0,0 l/m 0,2 km/h (0 Bft) NW 315 14,8 C 21,4 C 0,0 km/h (0 Bft)
22.08.2019 14:20 25,4 C 24,9 C 21,3 C 24,9 C 56 % 54 % 65 % 1027,1 hPa 0,0 l/m 0,2 km/h (0 Bft) O-NO 67 14,4 C 21,3 C 0,0 km/h (0 Bft)
22.08.2019 14:18 25,4 C 24,7 C 21,4 C 24,9 C 56 % 54 % 65 % 1027,1 hPa 0,0 l/m 0,5 km/h (0 Bft) O-SO 112 14,5 C 21,4 C 3,4 km/h (1 Bft)
22.08.2019 14:16 25,4 C 24,8 C 21,3 C 24,7 C 56 % 54 % 66 % 1027,1 hPa 0,0 l/m 0,6 km/h (0 Bft) O-SO 112 14,7 C 21,3 C 0,0 km/h (0 Bft)
22.08.2019 14:14 25,4 C 24,7 C 21,3 C 24,2 C 56 % 54 % 67 % 1027,1 hPa 0,0 l/m 0,6 km/h (0 Bft) SO 135 14,9 C 21,3 C 0,0 km/h (0 Bft)
22.08.2019 14:12 25,4 C 24,7 C 21,3 C 23,6 C 56 % 54 % 66 % 1027,1 hPa 0,0 l/m 0,6 km/h (0 Bft) O-SO 112 14,7 C 21,3 C 0,0 km/h (0 Bft)
22.08.2019 14:10 25,4 C 24,5 C 21,2 C 23,8 C 56 % 54 % 66 % 1027,1 hPa 0,0 l/m 1,0 km/h (0 Bft) N-NO 22 14,6 C 21,2 C 0,0 km/h (0 Bft)
22.08.2019 14:08 25,4 C 24,3 C 21,1 C 23,6 C 56 % 54 % 67 % 1027,1 hPa 0,0 l/m 1,4 km/h (1 Bft) N-NO 22 14,7 C 21,1 C 2,4 km/h (1 Bft)
22.08.2019 14:06 25,4 C 24,2 C 20,9 C 23,3 C 56 % 54 % 65 % 1027,1 hPa 0,0 l/m 1,3 km/h (1 Bft) SW 225 14,1 C 20,9 C 4,1 km/h (1 Bft)
22.08.2019 14:04 25,4 C 24,2 C 21,0 C 23,3 C 56 % 54 % 67 % 1027,1 hPa 0,0 l/m 1,3 km/h (1 Bft) W 270 14,6 C 21,0 C 3,4 km/h (1 Bft)
22.08.2019 14:02 25,4 C 24,0 C 21,0 C 22,7 C 56 % 54 % 67 % 1027,1 hPa 0,0 l/m 1,3 km/h (1 Bft) S 180 14,6 C 21,0 C 0,0 km/h (0 Bft)
22.08.2019 14:00 25,4 C 24,3 C 21,0 C 22,6 C 56 % 53 % 68 % 1027,3 hPa 0,0 l/m 1,3 km/h (1 Bft) N-NO 22 14,9 C 21,0 C 4,8 km/h (1 Bft)
22.08.2019 13:58 25,4 C 24,7 C 20,9 C 23,0 C 56 % 53 % 68 % 1027,3 hPa 0,0 l/m 1,3 km/h (1 Bft) O 90 14,8 C 20,9 C 8,7 km/h (2 Bft)
22.08.2019 13:56 25,4 C 24,6 C 20,8 C 23,0 C 56 % 53 % 67 % 1027,3 hPa 0,0 l/m 1,0 km/h (0 Bft) O-NO 67 14,4 C 20,8 C 0,0 km/h (0 Bft)
22.08.2019 13:54 25,4 C 24,3 C 20,9 C 22,7 C 56 % 53 % 67 % 1027,3 hPa 0,0 l/m 1,3 km/h (1 Bft) NO 45 14,5 C 20,9 C 3,6 km/h (1 Bft)
22.08.2019 13:52 25,4 C 24,1 C 20,9 C 22,5 C 56 % 53 % 67 % 1027,3 hPa 0,0 l/m 1,8 km/h (1 Bft) SO 135 14,5 C 20,9 C 0,0 km/h (0 Bft)
22.08.2019 13:50 25,4 C 24,2 C 20,9 C 22,7 C 56 % 53 % 68 % 1027,3 hPa 0,0 l/m 1,9 km/h (1 Bft) O 90 14,8 C 20,9 C 5,3 km/h (1 Bft)
22.08.2019 13:48 25,4 C 24,3 C 21,0 C 23,0 C 56 % 53 % 67 % 1027,3 hPa 0,0 l/m 1,8 km/h (1 Bft) SO 135 14,6 C 21,0 C 3,9 km/h (1 Bft)
22.08.2019 13:46 25,4 C 24,3 C 21,0 C 22,8 C 56 % 53 % 67 % 1027,3 hPa 0,0 l/m 1,9 km/h (1 Bft) S 180 14,6 C 21,0 C 3,4 km/h (1 Bft)
22.08.2019 13:44 25,4 C 24,4 C 21,1 C 23,1 C 56 % 53 % 67 % 1027,3 hPa 0,0 l/m 1,8 km/h (1 Bft) SO 135 14,7 C 21,1 C 4,1 km/h (1 Bft)
22.08.2019 13:42 25,4 C 24,4 C 21,1 C 23,5 C 56 % 53 % 67 % 1027,3 hPa 0,0 l/m 1,1 km/h (1 Bft) O 90 14,7 C 21,1 C 8,0 km/h (2 Bft)
22.08.2019 13:40 25,4 C 24,3 C 21,1 C 23,5 C 56 % 53 % 67 % 1027,2 hPa 0,0 l/m 0,8 km/h (0 Bft) SW 225 14,7 C 21,1 C 2,7 km/h (1 Bft)
22.08.2019 13:38 25,4 C 24,3 C 21,0 C 23,1 C 56 % 53 % 67 % 1027,2 hPa 0,0 l/m 1,1 km/h (1 Bft) O-NO 67 14,6 C 21,0 C 4,6 km/h (1 Bft)
22.08.2019 13:36 25,4 C 24,6 C 20,9 C 23,0 C 56 % 53 % 66 % 1027,2 hPa 0,0 l/m 1,1 km/h (1 Bft) S 180 14,3 C 20,9 C 0,0 km/h (0 Bft)
22.08.2019 13:34 25,4 C 24,7 C 20,8 C 23,2 C 56 % 53 % 65 % 1027,2 hPa 0,0 l/m 1,8 km/h (1 Bft) O-SO 112 14,0 C 20,8 C 0,0 km/h (0 Bft)
22.08.2019 13:32 25,4 C 24,8 C 20,9 C 23,0 C 56 % 53 % 67 % 1027,2 hPa 0,0 l/m 2,4 km/h (1 Bft) W-SW 247 14,5 C 20,9 C 0,0 km/h (0 Bft)
22.08.2019 13:30 25,4 C 24,6 C 20,8 C 22,5 C 56 % 53 % 64 % 1027,2 hPa 0,0 l/m 2,6 km/h (1 Bft) O-NO 67 13,7 C 20,8 C 3,4 km/h (1 Bft)
22.08.2019 13:28 25,4 C 24,3 C 20,9 C 22,3 C 56 % 53 % 65 % 1027,2 hPa 0,0 l/m 2,6 km/h (1 Bft) N-NO 22 14,1 C 20,9 C 5,1 km/h (1 Bft)
22.08.2019 13:26 25,4 C 24,3 C 20,7 C 21,9 C 56 % 53 % 64 % 1027,2 hPa 0,0 l/m 2,7 km/h (1 Bft) O-SO 112 13,6 C 20,7 C 4,1 km/h (1 Bft)
22.08.2019 13:24 25,4 C 23,9 C 20,8 C 21,9 C 56 % 53 % 65 % 1027,2 hPa 0,0 l/m 2,7 km/h (1 Bft) O-NO 67 14,0 C 20,8 C 6,5 km/h (2 Bft)
22.08.2019 13:22 25,4 C 24,2 C 20,8 C 22,1 C 56 % 52 % 66 % 1027,2 hPa 0,0 l/m 2,6 km/h (1 Bft) O-SO 112 14,2 C 20,8 C 10,6 km/h (2 Bft)
22.08.2019 13:20 25,4 C 24,3 C 20,9 C 21,8 C 56 % 52 % 66 % 1027,3 hPa 0,0 l/m 2,1 km/h (1 Bft) S 180 14,3 C 20,9 C 3,9 km/h (1 Bft)
22.08.2019 13:18 25,4 C 24,2 C 20,8 C 22,3 C 56 % 52 % 65 % 1027,3 hPa 0,0 l/m 2,4 km/h (1 Bft) NO 45 14,0 C 20,8 C 3,9 km/h (1 Bft)
22.08.2019 13:16 25,4 C 24,2 C 20,8 C 22,6 C 56 % 52 % 65 % 1027,3 hPa 0,0 l/m 2,3 km/h (1 Bft) O-SO 112 14,0 C 20,8 C 4,6 km/h (1 Bft)
22.08.2019 13:14 25,4 C 24,8 C 20,9 C 23,3 C 56 % 52 % 63 % 1027,3 hPa 0,0 l/m 2,1 km/h (1 Bft) S 180 13,6 C 20,9 C 4,1 km/h (1 Bft)
22.08.2019 13:12 25,4 C 25,4 C 21,0 C 23,7 C 56 % 52 % 63 % 1027,3 hPa 0,0 l/m 2,1 km/h (1 Bft) O-NO 67 13,7 C 21,0 C 5,1 km/h (1 Bft)
22.08.2019 13:10 25,4 C 25,4 C 21,2 C 23,8 C 56 % 52 % 63 % 1027,3 hPa 0,0 l/m 2,4 km/h (1 Bft) SW 225 13,9 C 21,2 C 2,7 km/h (1 Bft)
22.08.2019 13:08 25,4 C 25,5 C 21,2 C 24,3 C 56 % 52 % 65 % 1027,3 hPa 0,0 l/m 2,6 km/h (1 Bft) O-SO 112 14,4 C 21,2 C 8,7 km/h (2 Bft)
22.08.2019 13:06 25,4 C 24,9 C 20,9 C 24,1 C 56 % 52 % 63 % 1027,3 hPa 0,0 l/m 2,4 km/h (1 Bft) NO 45 13,6 C 20,9 C 3,9 km/h (1 Bft)
22.08.2019 13:04 25,4 C 25,0 C 21,2 C 24,0 C 56 % 52 % 65 % 1027,3 hPa 0,0 l/m 2,9 km/h (1 Bft) O 90 14,4 C 21,2 C 4,3 km/h (1 Bft)
22.08.2019 13:02 25,4 C 24,8 C 21,2 C 23,8 C 56 % 52 % 65 % 1027,3 hPa 0,0 l/m 2,9 km/h (1 Bft) O-NO 67 14,4 C 21,2 C 3,1 km/h (1 Bft)
22.08.2019 13:00 25,4 C 25,1 C 21,1 C 24,5 C 56 % 52 % 63 % 1027,4 hPa 0,0 l/m 3,1 km/h (1 Bft) O-NO 67 13,8 C 21,1 C 7,2 km/h (2 Bft)
22.08.2019 12:58 25,4 C 25,2 C 21,2 C 24,6 C 56 % 52 % 63 % 1027,4 hPa 0,0 l/m 2,6 km/h (1 Bft) W 270 13,9 C 21,2 C 3,4 km/h (1 Bft)
22.08.2019 12:56 25,4 C 26,1 C 21,4 C 26,1 C 56 % 52 % 63 % 1027,4 hPa 0,0 l/m 2,3 km/h (1 Bft) NW 315 14,1 C 21,4 C 0,0 km/h (0 Bft)
22.08.2019 12:54 25,4 C 27,0 C 21,6 C 26,2 C 56 % 52 % 65 % 1027,4 hPa 0,0 l/m 1,6 km/h (1 Bft) NW 315 14,7 C 21,6 C 4,6 km/h (1 Bft)
22.08.2019 12:52 25,4 C 26,8 C 21,2 C 26,4 C 56 % 53 % 63 % 1027,4 hPa 0,0 l/m 1,3 km/h (1 Bft) N-NO 22 13,9 C 21,2 C 8,0 km/h (2 Bft)
22.08.2019 12:50 25,4 C 26,6 C 20,9 C 25,6 C 56 % 53 % 64 % 1027,4 hPa 0,0 l/m 0,6 km/h (0 Bft) NO 45 13,8 C 20,9 C 6,0 km/h (2 Bft)
22.08.2019 12:48 25,4 C 26,5 C 20,6 C 25,6 C 56 % 53 % 64 % 1027,4 hPa 0,0 l/m 0,8 km/h (0 Bft) N-NW 337 13,5 C 20,6 C 0,0 km/h (0 Bft)
22.08.2019 12:46 25,4 C 25,6 C 20,0 C 23,3 C 56 % 54 % 63 % 1027,4 hPa 0,0 l/m 0,6 km/h (0 Bft) W-NW 292 12,7 C 20,0 C 0,0 km/h (0 Bft)
22.08.2019 12:44 25,4 C 24,8 C 20,1 C 23,1 C 56 % 55 % 65 % 1027,4 hPa 0,0 l/m 0,8 km/h (0 Bft) S 180 13,3 C 20,1 C 0,0 km/h (0 Bft)
22.08.2019 12:42 25,4 C 24,4 C 20,0 C 21,9 C 56 % 55 % 67 % 1027,4 hPa 0,0 l/m 1,0 km/h (0 Bft) O-NO 67 13,7 C 20,0 C 0,0 km/h (0 Bft)
22.08.2019 12:40 25,4 C 23,8 C 19,9 C 21,8 C 56 % 55 % 67 % 1027,6 hPa 0,0 l/m 1,1 km/h (1 Bft) N-NO 22 13,6 C 19,9 C 0,0 km/h (0 Bft)
22.08.2019 12:38 25,4 C 23,8 C 20,0 C 22,1 C 56 % 55 % 68 % 1027,6 hPa 0,0 l/m 1,1 km/h (1 Bft) NO 45 13,9 C 20,0 C 5,8 km/h (2 Bft)
22.08.2019 12:36 25,4 C 24,6 C 19,9 C 22,1 C 56 % 55 % 68 % 1027,6 hPa 0,0 l/m 1,1 km/h (1 Bft) O 90 13,8 C 19,9 C 3,1 km/h (1 Bft)
22.08.2019 12:34 25,4 C 24,7 C 19,9 C 21,9 C 56 % 55 % 68 % 1027,6 hPa 0,0 l/m 1,1 km/h (1 Bft) O-NO 67 13,8 C 19,9 C 0,0 km/h (0 Bft)
22.08.2019 12:32 25,4 C 25,0 C 19,8 C 21,6 C 56 % 55 % 68 % 1027,6 hPa 0,0 l/m 1,4 km/h (1 Bft) NO 45 13,7 C 19,8 C 0,0 km/h (0 Bft)
22.08.2019 12:30 25,4 C 24,7 C 19,7 C 20,6 C 56 % 55 % 68 % 1027,6 hPa 0,0 l/m 1,4 km/h (1 Bft) N-NO 22 13,6 C 19,7 C 2,4 km/h (1 Bft)
22.08.2019 12:28 25,4 C 24,5 C 19,7 C 20,4 C 56 % 55 % 69 % 1027,6 hPa 0,0 l/m 1,6 km/h (1 Bft) O-SO 112 13,8 C 19,7 C 3,4 km/h (1 Bft)
22.08.2019 12:26 25,4 C 24,3 C 19,6 C 20,2 C 56 % 55 % 69 % 1027,6 hPa 0,0 l/m 1,9 km/h (1 Bft) O-SO 112 13,8 C 19,6 C 4,1 km/h (1 Bft)
22.08.2019 12:24 25,4 C 24,3 C 19,6 C 20,1 C 56 % 55 % 69 % 1027,6 hPa 0,0 l/m 1,8 km/h (1 Bft) O-SO 112 13,8 C 19,6 C 5,3 km/h (1 Bft)
22.08.2019 12:22 25,4 C 24,5 C 19,7 C 20,3 C 56 % 55 % 69 % 1027,6 hPa 0,0 l/m 1,4 km/h (1 Bft) O-NO 67 13,8 C 19,7 C 6,8 km/h (2 Bft)
22.08.2019 12:20 25,4 C 24,6 C 19,7 C 20,5 C 56 % 55 % 70 % 1027,5 hPa 0,0 l/m 1,6 km/h (1 Bft) O-NO 67 14,1 C 19,7 C 0,0 km/h (0 Bft)
22.08.2019 12:18 25,4 C 24,7 C 19,6 C 20,5 C 56 % 55 % 69 % 1027,5 hPa 0,0 l/m 1,9 km/h (1 Bft) NW 315 13,8 C 19,6 C 3,1 km/h (1 Bft)
22.08.2019 12:16 25,4 C 24,7 C 19,6 C 20,2 C 56 % 55 % 69 % 1027,5 hPa 0,0 l/m 1,9 km/h (1 Bft) N 360 13,8 C 19,6 C 7,2 km/h (2 Bft)
22.08.2019 12:14 25,4 C 24,8 C 19,7 C 19,8 C 56 % 55 % 69 % 1027,5 hPa 0,0 l/m 1,8 km/h (1 Bft) NO 45 13,8 C 19,7 C 0,0 km/h (0 Bft)
22.08.2019 12:12 25,4 C 24,7 C 19,6 C 19,8 C 56 % 55 % 69 % 1027,5 hPa 0,0 l/m 1,8 km/h (1 Bft) NO 45 13,8 C 19,6 C 5,3 km/h (1 Bft)
22.08.2019 12:10 25,4 C 24,8 C 19,6 C 20,4 C 56 % 55 % 69 % 1027,5 hPa 0,0 l/m 1,9 km/h (1 Bft) O-SO 112 13,8 C 19,6 C 5,1 km/h (1 Bft)
22.08.2019 12:08 25,4 C 24,9 C 19,6 C 20,6 C 56 % 54 % 69 % 1027,5 hPa 0,0 l/m 1,6 km/h (1 Bft) O-NO 67 13,8 C 19,6 C 6,3 km/h (2 Bft)
22.08.2019 12:06 25,4 C 24,8 C 19,4 C 20,5 C 56 % 54 % 68 % 1027,5 hPa 0,0 l/m 1,8 km/h (1 Bft) O-NO 67 13,3 C 19,4 C 8,7 km/h (2 Bft)
22.08.2019 12:04 25,4 C 24,8 C 19,3 C 20,5 C 56 % 54 % 67 % 1027,5 hPa 0,0 l/m 1,8 km/h (1 Bft) N 360 13,0 C 19,3 C 0,0 km/h (0 Bft)
22.08.2019 12:02 25,4 C 24,7 C 19,4 C 20,5 C 56 % 54 % 67 % 1027,5 hPa 0,0 l/m 2,3 km/h (1 Bft) N-NW 337 13,1 C 19,4 C 0,0 km/h (0 Bft)
22.08.2019 12:00 25,4 C 24,7 C 19,4 C 20,6 C 56 % 54 % 67 % 1027,4 hPa 0,0 l/m 2,1 km/h (1 Bft) N-NO 22 13,1 C 19,4 C 4,6 km/h (1 Bft)
22.08.2019 11:58 25,4 C 24,6 C 19,5 C 20,9 C 56 % 54 % 68 % 1027,4 hPa 0,0 l/m 2,1 km/h (1 Bft) O-NO 67 13,4 C 19,5 C 4,3 km/h (1 Bft)
22.08.2019 11:56 25,4 C 24,5 C 19,5 C 21,0 C 56 % 54 % 69 % 1027,4 hPa 0,0 l/m 1,8 km/h (1 Bft) O-NO 67 13,7 C 19,5 C 8,0 km/h (2 Bft)
22.08.2019 11:54 25,4 C 24,5 C 19,3 C 20,7 C 56 % 54 % 68 % 1027,4 hPa 0,0 l/m 1,8 km/h (1 Bft) N-NO 22 13,2 C 19,3 C 5,1 km/h (1 Bft)
22.08.2019 11:52 25,4 C 24,5 C 19,4 C 20,1 C 56 % 54 % 68 % 1027,4 hPa 0,0 l/m 1,3 km/h (1 Bft) W-SW 247 13,3 C 19,4 C 5,8 km/h (2 Bft)
22.08.2019 11:50 25,4 C 24,6 C 19,4 C 20,0 C 56 % 54 % 68 % 1027,4 hPa 0,0 l/m 1,1 km/h (1 Bft) O-NO 67 13,3 C 19,4 C 3,4 km/h (1 Bft)
22.08.2019 11:48 25,4 C 24,7 C 19,5 C 20,1 C 56 % 54 % 70 % 1027,4 hPa 0,0 l/m 1,0 km/h (0 Bft) O-NO 67 13,9 C 19,5 C 0,0 km/h (0 Bft)
22.08.2019 11:46 25,4 C 24,7 C 19,5 C 20,2 C 56 % 54 % 70 % 1027,4 hPa 0,0 l/m 0,8 km/h (0 Bft) N-NW 337 13,9 C 19,5 C 0,0 km/h (0 Bft)
22.08.2019 11:44 25,4 C 24,6 C 19,5 C 20,3 C 56 % 54 % 70 % 1027,4 hPa 0,0 l/m 0,6 km/h (0 Bft) NW 315 13,9 C 19,5 C 0,0 km/h (0 Bft)
22.08.2019 11:42 25,4 C 24,5 C 19,5 C 20,5 C 56 % 54 % 69 % 1027,4 hPa 0,0 l/m 1,1 km/h (1 Bft) N-NO 22 13,7 C 19,5 C 3,6 km/h (1 Bft)
22.08.2019 11:40 25,4 C 24,7 C 19,5 C 20,4 C 56 % 54 % 69 % 1027,4 hPa 0,0 l/m 1,1 km/h (1 Bft) SW 225 13,7 C 19,5 C 0,0 km/h (0 Bft)
22.08.2019 11:38 25,4 C 24,6 C 19,4 C 20,0 C 56 % 54 % 69 % 1027,4 hPa 0,0 l/m 1,6 km/h (1 Bft) N-NW 337 13,6 C 19,4 C 4,6 km/h (1 Bft)
22.08.2019 11:36 25,4 C 24,5 C 19,4 C 19,7 C 56 % 54 % 68 % 1027,4 hPa 0,0 l/m 1,6 km/h (1 Bft) O-NO 67 13,3 C 19,4 C 0,0 km/h (0 Bft)
22.08.2019 11:34 25,4 C 24,5 C 19,4 C 19,7 C 56 % 53 % 68 % 1027,4 hPa 0,0 l/m 1,4 km/h (1 Bft) SO 135 13,3 C 19,4 C 2,7 km/h (1 Bft)
22.08.2019 11:32 25,4 C 24,4 C 19,6 C 19,6 C 56 % 53 % 69 % 1027,4 hPa 0,0 l/m 1,4 km/h (1 Bft) O-NO 67 13,8 C 19,6 C 3,4 km/h (1 Bft)
22.08.2019 11:30 25,4 C 24,4 C 19,6 C 20,3 C 56 % 53 % 68 % 1027,4 hPa 0,0 l/m 1,6 km/h (1 Bft) NO 45 13,5 C 19,6 C 5,8 km/h (2 Bft)
22.08.2019 11:28 25,4 C 24,4 C 19,6 C 20,8 C 56 % 53 % 68 % 1027,4 hPa 0,0 l/m 1,4 km/h (1 Bft) W 270 13,5 C 19,6 C 2,9 km/h (1 Bft)
22.08.2019 11:26 25,4 C 24,1 C 19,7 C 20,5 C 56 % 53 % 67 % 1027,4 hPa 0,0 l/m 1,8 km/h (1 Bft) O-NO 67 13,4 C 19,7 C 3,9 km/h (1 Bft)
22.08.2019 11:24 25,4 C 24,1 C 19,9 C 20,8 C 56 % 53 % 68 % 1027,4 hPa 0,0 l/m 1,6 km/h (1 Bft) O-SO 112 13,8 C 19,9 C 0,0 km/h (0 Bft)
22.08.2019 11:22 25,4 C 24,0 C 20,0 C 21,1 C 56 % 53 % 67 % 1027,4 hPa 0,0 l/m 1,8 km/h (1 Bft) SO 135 13,7 C 20,0 C 0,0 km/h (0 Bft)
22.08.2019 11:20 25,4 C 24,2 C 20,1 C 22,0 C 56 % 53 % 67 % 1027,4 hPa 0,0 l/m 2,3 km/h (1 Bft) O-SO 112 13,8 C 20,1 C 4,6 km/h (1 Bft)
22.08.2019 11:18 25,4 C 24,9 C 20,1 C 22,4 C 56 % 53 % 68 % 1027,4 hPa 0,0 l/m 2,6 km/h (1 Bft) O-SO 112 14,0 C 20,1 C 4,3 km/h (1 Bft)
22.08.2019 11:16 25,4 C 24,8 C 19,9 C 21,9 C 56 % 53 % 67 % 1027,4 hPa 0,0 l/m 2,7 km/h (1 Bft) SO 135 13,6 C 19,9 C 4,6 km/h (1 Bft)
22.08.2019 11:14 25,4 C 24,0 C 19,8 C 21,4 C 56 % 53 % 67 % 1027,4 hPa 0,0 l/m 3,1 km/h (1 Bft) SW 225 13,5 C 19,8 C 0,0 km/h (0 Bft)
22.08.2019 11:12 25,4 C 23,3 C 19,8 C 20,7 C 56 % 54 % 67 % 1027,4 hPa 0,0 l/m 3,2 km/h (1 Bft) O-SO 112 13,5 C 19,8 C 6,0 km/h (2 Bft)
22.08.2019 11:10 25,4 C 23,3 C 20,0 C 20,9 C 56 % 54 % 67 % 1027,4 hPa 0,0 l/m 2,7 km/h (1 Bft) N-NO 22 13,7 C 20,0 C 6,5 km/h (2 Bft)
22.08.2019 11:08 25,4 C 24,6 C 19,9 C 21,2 C 56 % 53 % 67 % 1027,4 hPa 0,0 l/m 2,4 km/h (1 Bft) O-NO 67 13,6 C 19,9 C 8,0 km/h (2 Bft)
22.08.2019 11:06 25,4 C 24,7 C 20,0 C 21,1 C 56 % 53 % 69 % 1027,4 hPa 0,0 l/m 2,6 km/h (1 Bft) O-NO 67 14,1 C 20,0 C 5,8 km/h (2 Bft)
22.08.2019 11:04 25,4 C 25,0 C 19,9 C 21,3 C 56 % 53 % 69 % 1027,4 hPa 0,0 l/m 2,6 km/h (1 Bft) SW 225 14,0 C 19,9 C 5,1 km/h (1 Bft)
22.08.2019 11:02 25,4 C 24,3 C 19,8 C 20,9 C 56 % 53 % 70 % 1027,4 hPa 0,0 l/m 2,3 km/h (1 Bft) S-SO 157 14,2 C 19,8 C 3,9 km/h (1 Bft)
22.08.2019 11:00 25,4 C 23,2 C 19,5 C 20,4 C 56 % 54 % 68 % 1027,7 hPa 0,0 l/m 2,1 km/h (1 Bft) NO 45 13,4 C 19,5 C 2,4 km/h (1 Bft)
22.08.2019 10:58 25,4 C 22,8 C 19,5 C 20,6 C 56 % 56 % 69 % 1027,7 hPa 0,0 l/m 2,4 km/h (1 Bft) SW 225 13,7 C 19,5 C 6,8 km/h (2 Bft)
22.08.2019 10:56 25,4 C 24,0 C 19,6 C 20,8 C 56 % 53 % 70 % 1027,7 hPa 0,0 l/m 1,9 km/h (1 Bft) NO 45 14,0 C 19,6 C 10,1 km/h (2 Bft)
22.08.2019 10:54 25,4 C 24,2 C 19,6 C 20,8 C 56 % 53 % 70 % 1027,7 hPa 0,0 l/m 1,9 km/h (1 Bft) N-NO 22 14,0 C 19,6 C 7,2 km/h (2 Bft)
22.08.2019 10:52 25,4 C 24,8 C 19,5 C 20,6 C 56 % 53 % 69 % 1027,7 hPa 0,0 l/m 1,9 km/h (1 Bft) O-NO 67 13,7 C 19,5 C 2,9 km/h (1 Bft)
22.08.2019 10:50 25,4 C 24,8 C 19,5 C 20,2 C 56 % 53 % 70 % 1027,7 hPa 0,0 l/m 1,9 km/h (1 Bft) S 180 13,9 C 19,5 C 0,0 km/h (0 Bft)
22.08.2019 10:48 25,4 C 24,3 C 19,2 C 19,7 C 56 % 53 % 70 % 1027,7 hPa 0,0 l/m 2,4 km/h (1 Bft) O-NO 67 13,6 C 19,2 C 7,7 km/h (2 Bft)
22.08.2019 10:46 25,4 C 24,1 C 19,1 C 19,6 C 56 % 53 % 69 % 1027,7 hPa 0,0 l/m 2,6 km/h (1 Bft) N-NO 22 13,3 C 19,1 C 6,5 km/h (2 Bft)
22.08.2019 10:44 25,4 C 24,1 C 19,1 C 20,0 C 56 % 53 % 69 % 1027,7 hPa 0,0 l/m 2,4 km/h (1 Bft) NO 45 13,3 C 19,1 C 5,8 km/h (2 Bft)
22.08.2019 10:42 25,4 C 24,2 C 19,1 C 20,0 C 56 % 53 % 69 % 1027,7 hPa 0,0 l/m 2,4 km/h (1 Bft) SO 135 13,3 C 19,1 C 6,3 km/h (2 Bft)
22.08.2019 10:40 25,4 C 24,2 C 19,2 C 19,8 C 56 % 53 % 70 % 1027,6 hPa 0,0 l/m 2,6 km/h (1 Bft) W 270 13,6 C 19,2 C 2,9 km/h (1 Bft)
22.08.2019 10:38 25,4 C 24,5 C 19,1 C 20,0 C 56 % 53 % 70 % 1027,6 hPa 0,0 l/m 2,7 km/h (1 Bft) N-NO 22 13,5 C 19,1 C 8,0 km/h (2 Bft)
22.08.2019 10:36 25,4 C 24,5 C 19,2 C 19,1 C 56 % 53 % 71 % 1027,6 hPa 0,0 l/m 2,1 km/h (1 Bft) O 90 13,8 C 19,2 C 9,9 km/h (2 Bft)
22.08.2019 10:34 25,4 C 24,4 C 19,0 C 19,1 C 56 % 53 % 69 % 1027,6 hPa 0,0 l/m 1,9 km/h (1 Bft) NO 45 13,2 C 19,0 C 17,6 km/h (3 Bft)
22.08.2019 10:32 25,4 C 24,1 C 19,1 C 19,0 C 56 % 53 % 70 % 1027,6 hPa 0,0 l/m 1,9 km/h (1 Bft) O-NO 67 13,5 C 19,1 C 8,9 km/h (2 Bft)
22.08.2019 10:30 25,4 C 24,2 C 19,1 C 19,3 C 57 % 53 % 70 % 1027,6 hPa 0,0 l/m 1,4 km/h (1 Bft) SO 135 13,5 C 19,1 C 4,6 km/h (1 Bft)
22.08.2019 10:28 25,4 C 24,1 C 19,0 C 19,3 C 56 % 53 % 71 % 1027,6 hPa 0,0 l/m 1,6 km/h (1 Bft) O 90 13,6 C 19,0 C 3,4 km/h (1 Bft)
22.08.2019 10:26 25,4 C 24,3 C 18,9 C 19,1 C 56 % 53 % 71 % 1027,6 hPa 0,0 l/m 1,8 km/h (1 Bft) O-NO 67 13,5 C 18,9 C 2,4 km/h (1 Bft)
22.08.2019 10:24 25,4 C 24,5 C 18,8 C 19,1 C 56 % 53 % 70 % 1027,6 hPa 0,0 l/m 2,1 km/h (1 Bft) O 90 13,2 C 18,8 C 7,0 km/h (2 Bft)
22.08.2019 10:22 25,4 C 24,8 C 18,9 C 19,5 C 56 % 53 % 71 % 1027,6 hPa 0,0 l/m 2,1 km/h (1 Bft) W-SW 247 13,5 C 18,9 C 0,0 km/h (0 Bft)
22.08.2019 10:20 25,4 C 24,6 C 18,9 C 19,5 C 57 % 53 % 71 % 1027,0 hPa 0,0 l/m 2,1 km/h (1 Bft) SO 135 13,5 C 18,9 C 5,8 km/h (2 Bft)
22.08.2019 10:18 25,4 C 24,6 C 18,9 C 19,5 C 57 % 53 % 71 % 1027,0 hPa 0,0 l/m 2,3 km/h (1 Bft) O 90 13,5 C 18,9 C 5,8 km/h (2 Bft)
22.08.2019 10:16 25,4 C 24,6 C 18,8 C 19,2 C 57 % 53 % 70 % 1027,0 hPa 0,0 l/m 2,6 km/h (1 Bft) N-NO 22 13,2 C 18,8 C 6,5 km/h (2 Bft)
22.08.2019 10:14 25,4 C 24,6 C 18,8 C 18,7 C 56 % 53 % 70 % 1027,0 hPa 0,0 l/m 2,6 km/h (1 Bft) O-SO 112 13,2 C 18,8 C 10,6 km/h (2 Bft)
22.08.2019 10:12 25,4 C 24,5 C 18,9 C 18,9 C 57 % 53 % 70 % 1027,0 hPa 0,0 l/m 2,7 km/h (1 Bft) O 90 13,3 C 18,9 C 4,3 km/h (1 Bft)
22.08.2019 10:10 25,4 C 24,3 C 18,8 C 19,2 C 57 % 53 % 70 % 1027,0 hPa 0,0 l/m 3,4 km/h (1 Bft) O-NO 67 13,2 C 18,8 C 0,0 km/h (0 Bft)
22.08.2019 10:08 25,4 C 24,2 C 18,8 C 19,2 C 57 % 53 % 70 % 1027,0 hPa 0,0 l/m 3,2 km/h (1 Bft) O-SO 112 13,2 C 18,8 C 11,8 km/h (2 Bft)
22.08.2019 10:06 25,4 C 24,1 C 18,9 C 19,5 C 57 % 53 % 70 % 1027,0 hPa 0,0 l/m 3,4 km/h (1 Bft) O-NO 67 13,3 C 18,9 C 4,8 km/h (1 Bft)
22.08.2019 10:04 25,4 C 23,8 C 19,0 C 19,8 C 57 % 54 % 71 % 1027,0 hPa 0,0 l/m 3,1 km/h (1 Bft) N-NO 22 13,6 C 19,0 C 6,5 km/h (2 Bft)
22.08.2019 10:02 25,4 C 23,4 C 19,0 C 19,6 C 57 % 54 % 71 % 1027,0 hPa 0,0 l/m 2,9 km/h (1 Bft) O-SO 112 13,6 C 19,0 C 10,4 km/h (2 Bft)
22.08.2019 10:00 25,4 C 23,4 C 19,0 C 19,5 C 57 % 54 % 71 % 1027,7 hPa 0,0 l/m 2,3 km/h (1 Bft) NO 45 13,6 C 19,0 C 9,2 km/h (2 Bft)
22.08.2019 09:58 25,4 C 22,9 C 18,8 C 19,4 C 57 % 55 % 70 % 1027,7 hPa 0,0 l/m 1,9 km/h (1 Bft) N-NO 22 13,2 C 18,8 C 3,9 km/h (1 Bft)
22.08.2019 09:56 25,4 C 23,8 C 18,9 C 19,9 C 57 % 54 % 70 % 1027,7 hPa 0,0 l/m 1,6 km/h (1 Bft) N-NO 22 13,3 C 18,9 C 6,5 km/h (2 Bft)
22.08.2019 09:54 25,4 C 23,8 C 18,9 C 19,7 C 57 % 54 % 71 % 1027,7 hPa 0,0 l/m 1,4 km/h (1 Bft) W-SW 247 13,5 C 18,9 C 4,6 km/h (1 Bft)
22.08.2019 09:52 25,4 C 24,5 C 18,9 C 19,7 C 57 % 53 % 72 % 1027,7 hPa 0,0 l/m 1,3 km/h (1 Bft) O 90 13,7 C 18,9 C 5,1 km/h (1 Bft)
22.08.2019 09:50 25,4 C 24,3 C 18,7 C 19,4 C 57 % 53 % 72 % 1027,7 hPa 0,0 l/m 1,4 km/h (1 Bft) O 90 13,5 C 18,7 C 3,4 km/h (1 Bft)
22.08.2019 09:48 25,4 C 24,0 C 18,6 C 19,4 C 57 % 53 % 71 % 1027,7 hPa 0,0 l/m 1,6 km/h (1 Bft) N-NW 337 13,2 C 18,6 C 3,1 km/h (1 Bft)
22.08.2019 09:46 25,4 C 24,0 C 18,7 C 19,7 C 57 % 53 % 72 % 1027,7 hPa 0,0 l/m 1,8 km/h (1 Bft) O-SO 112 13,5 C 18,7 C 2,9 km/h (1 Bft)
22.08.2019 09:44 25,4 C 23,9 C 18,7 C 20,0 C 57 % 53 % 72 % 1027,7 hPa 0,0 l/m 1,8 km/h (1 Bft) NW 315 13,5 C 18,7 C 3,1 km/h (1 Bft)
22.08.2019 09:42 25,4 C 24,1 C 18,7 C 20,0 C 57 % 53 % 72 % 1027,7 hPa 0,0 l/m 1,9 km/h (1 Bft) O-SO 112 13,5 C 18,7 C 5,3 km/h (1 Bft)
22.08.2019 09:40 25,4 C 24,0 C 18,6 C 19,7 C 57 % 53 % 71 % 1027,6 hPa 0,0 l/m 2,4 km/h (1 Bft) S-SO 157 13,2 C 18,6 C 5,6 km/h (1 Bft)
22.08.2019 09:38 25,4 C 23,9 C 18,6 C 19,6 C 57 % 54 % 71 % 1027,6 hPa 0,0 l/m 2,4 km/h (1 Bft) O-SO 112 13,2 C 18,6 C 3,9 km/h (1 Bft)
22.08.2019 09:36 25,4 C 23,2 C 18,6 C 19,4 C 57 % 54 % 71 % 1027,6 hPa 0,0 l/m 2,4 km/h (1 Bft) W 270 13,2 C 18,6 C 4,1 km/h (1 Bft)
22.08.2019 09:34 25,4 C 22,5 C 18,7 C 18,9 C 57 % 55 % 71 % 1027,6 hPa 0,0 l/m 2,4 km/h (1 Bft) NW 315 13,3 C 18,7 C 12,1 km/h (2 Bft)
22.08.2019 09:32 25,4 C 22,3 C 18,8 C 18,7 C 57 % 55 % 71 % 1027,6 hPa 0,0 l/m 2,6 km/h (1 Bft) O-NO 67 13,4 C 18,8 C 2,4 km/h (1 Bft)
22.08.2019 09:30 25,4 C 23,2 C 18,9 C 18,9 C 57 % 54 % 72 % 1027,6 hPa 0,0 l/m 2,4 km/h (1 Bft) O-NO 67 13,7 C 18,9 C 9,2 km/h (2 Bft)
22.08.2019 09:28 25,4 C 23,4 C 18,7 C 18,5 C 57 % 54 % 73 % 1027,6 hPa 0,0 l/m 2,3 km/h (1 Bft) O-NO 67 13,8 C 18,7 C 5,3 km/h (1 Bft)
22.08.2019 09:26 25,4 C 23,3 C 18,6 C 18,1 C 57 % 54 % 73 % 1027,6 hPa 0,0 l/m 2,1 km/h (1 Bft) S 180 13,7 C 18,6 C 4,6 km/h (1 Bft)
22.08.2019 09:24 25,4 C 22,5 C 18,7 C 18,5 C 57 % 56 % 73 % 1027,6 hPa 0,0 l/m 2,1 km/h (1 Bft) SO 135 13,8 C 18,7 C 4,3 km/h (1 Bft)
22.08.2019 09:22 25,4 C 22,2 C 18,8 C 18,1 C 57 % 56 % 74 % 1027,6 hPa 0,0 l/m 2,1 km/h (1 Bft) O-NO 67 14,1 C 18,8 C 3,4 km/h (1 Bft)
22.08.2019 09:20 25,4 C 22,8 C 18,6 C 17,8 C 57 % 56 % 74 % 1027,7 hPa 0,0 l/m 2,1 km/h (1 Bft) NO 45 13,9 C 18,6 C 8,2 km/h (2 Bft)
22.08.2019 09:18 25,4 C 23,1 C 18,4 C 17,7 C 57 % 54 % 74 % 1027,7 hPa 0,0 l/m 1,9 km/h (1 Bft) O-SO 112 13,7 C 18,4 C 8,7 km/h (2 Bft)
22.08.2019 09:16 25,4 C 23,3 C 18,5 C 17,9 C 57 % 54 % 76 % 1027,7 hPa 0,0 l/m 1,6 km/h (1 Bft) NO 45 14,2 C 18,5 C 2,7 km/h (1 Bft)
22.08.2019 09:14 25,4 C 23,9 C 18,4 C 17,8 C 57 % 54 % 76 % 1027,7 hPa 0,0 l/m 2,1 km/h (1 Bft) O 90 14,1 C 18,4 C 10,4 km/h (2 Bft)
22.08.2019 09:12 25,4 C 24,4 C 18,2 C 17,8 C 57 % 53 % 77 % 1027,7 hPa 0,0 l/m 2,1 km/h (1 Bft) O-SO 112 14,1 C 18,2 C 4,3 km/h (1 Bft)
22.08.2019 09:10 25,4 C 25,4 C 18,0 C 18,1 C 57 % 53 % 78 % 1027,7 hPa 0,0 l/m 2,1 km/h (1 Bft) NO 45 14,1 C 18,0 C 3,4 km/h (1 Bft)
22.08.2019 09:08 25,4 C 25,6 C 17,9 C 18,2 C 57 % 53 % 79 % 1027,7 hPa 0,0 l/m 2,1 km/h (1 Bft) N-NO 22 14,2 C 17,9 C 4,3 km/h (1 Bft)
22.08.2019 09:06 25,4 C 25,4 C 17,7 C 18,1 C 57 % 53 % 79 % 1027,7 hPa 0,0 l/m 1,8 km/h (1 Bft) O-NO 67 14,0 C 17,7 C 2,9 km/h (1 Bft)
22.08.2019 09:04 25,4 C 25,3 C 17,5 C 18,1 C 57 % 53 % 79 % 1027,7 hPa 0,0 l/m 1,4 km/h (1 Bft) NO 45 13,8 C 17,5 C 8,4 km/h (2 Bft)
22.08.2019 09:02 25,4 C 25,2 C 17,5 C 18,5 C 57 % 53 % 79 % 1027,7 hPa 0,0 l/m 1,3 km/h (1 Bft) N-NO 22 13,8 C 17,5 C 3,6 km/h (1 Bft)
22.08.2019 09:00 25,4 C 25,2 C 17,4 C 18,5 C 57 % 53 % 80 % 1027,9 hPa 0,0 l/m 1,3 km/h (1 Bft) SO 135 13,9 C 17,4 C 5,6 km/h (1 Bft)
22.08.2019 08:58 25,4 C 25,2 C 17,4 C 18,0 C 57 % 53 % 80 % 1027,9 hPa 0,0 l/m 1,3 km/h (1 Bft) SO 135 13,9 C 17,4 C 3,9 km/h (1 Bft)
22.08.2019 08:56 25,4 C 25,2 C 17,3 C 18,3 C 57 % 53 % 80 % 1027,9 hPa 0,0 l/m 1,1 km/h (1 Bft) N-NW 337 13,8 C 17,3 C 0,0 km/h (0 Bft)
22.08.2019 08:54 25,4 C 24,6 C 17,2 C 17,9 C 57 % 53 % 80 % 1027,9 hPa 0,0 l/m 1,3 km/h (1 Bft) O-NO 67 13,7 C 17,2 C 0,0 km/h (0 Bft)
22.08.2019 08:52 25,4 C 24,6 C 17,2 C 17,8 C 57 % 53 % 80 % 1027,9 hPa 0,0 l/m 1,0 km/h (0 Bft) O-SO 112 13,7 C 17,2 C 0,0 km/h (0 Bft)
22.08.2019 08:50 25,4 C 24,6 C 17,2 C 18,1 C 57 % 53 % 80 % 1027,9 hPa 0,0 l/m 0,8 km/h (0 Bft) O-NO 67 13,7 C 17,2 C 5,6 km/h (1 Bft)
22.08.2019 08:48 25,4 C 24,6 C 17,1 C 17,8 C 57 % 53 % 80 % 1027,9 hPa 0,0 l/m 0,6 km/h (0 Bft) S-SO 157 13,6 C 17,1 C 3,4 km/h (1 Bft)
22.08.2019 08:46 25,4 C 24,6 C 17,1 C 17,6 C 57 % 53 % 80 % 1027,9 hPa 0,0 l/m 1,0 km/h (0 Bft) O-NO 67 13,6 C 17,1 C 0,0 km/h (0 Bft)
22.08.2019 08:44 25,4 C 24,6 C 17,2 C 18,0 C 57 % 53 % 80 % 1027,9 hPa 0,0 l/m 1,0 km/h (0 Bft) O-SO 112 13,7 C 17,2 C 8,2 km/h (2 Bft)
22.08.2019 08:42 25,4 C 24,6 C 17,1 C 17,5 C 57 % 53 % 80 % 1027,9 hPa 0,0 l/m 1,4 km/h (1 Bft) SO 135 13,6 C 17,1 C 0,0 km/h (0 Bft)
22.08.2019 08:40 25,4 C 24,6 C 17,1 C 17,5 C 57 % 53 % 80 % 1028,1 hPa 0,0 l/m 1,6 km/h (1 Bft) O-NO 67 13,6 C 17,1 C 4,1 km/h (1 Bft)
22.08.2019 08:38 25,4 C 24,5 C 17,1 C 17,2 C 57 % 53 % 80 % 1028,1 hPa 0,0 l/m 1,6 km/h (1 Bft) NO 45 13,6 C 17,1 C 2,7 km/h (1 Bft)
22.08.2019 08:36 25,4 C 24,4 C 17,0 C 17,3 C 57 % 53 % 80 % 1028,1 hPa 0,0 l/m 1,4 km/h (1 Bft) NO 45 13,5 C 17,0 C 8,2 km/h (2 Bft)
22.08.2019 08:34 25,4 C 24,2 C 17,0 C 17,4 C 57 % 53 % 81 % 1028,1 hPa 0,0 l/m 1,4 km/h (1 Bft) W-NW 292 13,7 C 17,0 C 7,7 km/h (2 Bft)
22.08.2019 08:32 25,4 C 24,0 C 17,0 C 17,6 C 57 % 53 % 81 % 1028,1 hPa 0,0 l/m 1,1 km/h (1 Bft) O-NO 67 13,7 C 17,0 C 3,6 km/h (1 Bft)
22.08.2019 08:30 25,4 C 23,9 C 16,8 C 17,1 C 57 % 54 % 81 % 1028,1 hPa 0,0 l/m 0,8 km/h (0 Bft) NO 45 13,5 C 16,8 C 4,1 km/h (1 Bft)
22.08.2019 08:28 25,4 C 23,8 C 16,7 C 17,0 C 57 % 54 % 81 % 1028,1 hPa 0,0 l/m 0,6 km/h (0 Bft) O-NO 67 13,4 C 16,7 C 4,6 km/h (1 Bft)
22.08.2019 08:26 25,4 C 23,7 C 16,7 C 17,0 C 57 % 54 % 81 % 1028,1 hPa 0,0 l/m 1,0 km/h (0 Bft) NO 45 13,4 C 16,7 C 4,8 km/h (1 Bft)
22.08.2019 08:24 25,4 C 23,7 C 16,7 C 17,0 C 57 % 54 % 81 % 1028,1 hPa 0,0 l/m 0,8 km/h (0 Bft) NO 45 13,4 C 16,7 C 0,0 km/h (0 Bft)
22.08.2019 08:22 25,4 C 23,4 C 16,5 C 16,4 C 57 % 54 % 81 % 1028,1 hPa 0,0 l/m 1,1 km/h (1 Bft) O-SO 112 13,2 C 16,5 C 0,0 km/h (0 Bft)
22.08.2019 08:20 25,4 C 23,4 C 16,5 C 16,2 C 57 % 54 % 81 % 1027,8 hPa 0,0 l/m 1,6 km/h (1 Bft) O-SO 112 13,2 C 16,5 C 0,0 km/h (0 Bft)
22.08.2019 08:18 25,4 C 23,3 C 16,5 C 15,6 C 57 % 54 % 81 % 1027,8 hPa 0,0 l/m 1,8 km/h (1 Bft) N-NW 337 13,2 C 16,5 C 0,0 km/h (0 Bft)
22.08.2019 08:16 25,4 C 23,2 C 16,5 C 15,6 C 57 % 54 % 82 % 1027,8 hPa 0,0 l/m 1,6 km/h (1 Bft) N-NO 22 13,4 C 16,5 C 3,1 km/h (1 Bft)
22.08.2019 08:14 25,4 C 23,2 C 16,5 C 15,7 C 57 % 54 % 82 % 1027,8 hPa 0,0 l/m 1,4 km/h (1 Bft) W 270 13,4 C 16,5 C 7,5 km/h (2 Bft)
22.08.2019 08:12 25,4 C 23,1 C 16,5 C 15,9 C 57 % 54 % 82 % 1027,8 hPa 0,0 l/m 1,3 km/h (1 Bft) O-NO 67 13,4 C 16,5 C 3,4 km/h (1 Bft)
22.08.2019 08:10 25,4 C 23,1 C 16,5 C 16,0 C 57 % 54 % 83 % 1027,8 hPa 0,0 l/m 1,0 km/h (0 Bft) NO 45 13,6 C 16,5 C 4,1 km/h (1 Bft)
22.08.2019 08:08 25,4 C 23,0 C 16,5 C 16,2 C 57 % 54 % 84 % 1027,8 hPa 0,0 l/m 0,8 km/h (0 Bft) N-NO 22 13,8 C 16,5 C 3,9 km/h (1 Bft)
22.08.2019 08:06 25,4 C 22,6 C 16,4 C 15,9 C 57 % 56 % 84 % 1027,8 hPa 0,0 l/m 1,0 km/h (0 Bft) NW 315 13,7 C 16,4 C 0,0 km/h (0 Bft)
22.08.2019 08:04 25,2 C 22,4 C 16,3 C 15,6 C 57 % 56 % 84 % 1027,8 hPa 0,0 l/m 1,1 km/h (1 Bft) W 270 13,6 C 16,3 C 7,2 km/h (2 Bft)
22.08.2019 08:02 25,4 C 22,2 C 16,2 C 15,7 C 57 % 56 % 85 % 1027,8 hPa 0,0 l/m 1,3 km/h (1 Bft) O-NO 67 13,7 C 16,2 C 0,0 km/h (0 Bft)
22.08.2019 08:00 25,4 C 21,9 C 16,1 C 15,4 C 57 % 56 % 85 % 1028,1 hPa 0,0 l/m 1,6 km/h (1 Bft) S 180 13,6 C 16,1 C 4,1 km/h (1 Bft)
22.08.2019 07:58 25,4 C 21,6 C 16,0 C 15,2 C 57 % 56 % 85 % 1028,1 hPa 0,0 l/m 1,9 km/h (1 Bft) NO 45 13,5 C 16,0 C 7,2 km/h (2 Bft)
22.08.2019 07:56 25,4 C 21,3 C 16,0 C 15,2 C 57 % 56 % 85 % 1028,1 hPa 0,0 l/m 1,9 km/h (1 Bft) O-NO 67 13,5 C 16,0 C 3,9 km/h (1 Bft)
22.08.2019 07:54 25,4 C 21,2 C 15,8 C 15,1 C 57 % 56 % 86 % 1028,1 hPa 0,0 l/m 2,1 km/h (1 Bft) O-NO 67 13,5 C 15,8 C 6,8 km/h (2 Bft)
22.08.2019 07:52 25,4 C 21,0 C 15,8 C 15,1 C 57 % 56 % 86 % 1028,1 hPa 0,0 l/m 2,4 km/h (1 Bft) O-NO 67 13,5 C 15,8 C 4,6 km/h (1 Bft)
22.08.2019 07:50 25,4 C 20,8 C 15,7 C 15,1 C 57 % 56 % 86 % 1028,1 hPa 0,0 l/m 1,9 km/h (1 Bft) O-SO 112 13,4 C 15,7 C 5,1 km/h (1 Bft)
22.08.2019 07:48 25,4 C 20,5 C 15,7 C 15,3 C 57 % 56 % 86 % 1028,1 hPa 0,0 l/m 1,9 km/h (1 Bft) O-NO 67 13,4 C 15,7 C 5,1 km/h (1 Bft)
22.08.2019 07:46 25,4 C 20,4 C 15,5 C 15,3 C 57 % 56 % 86 % 1028,1 hPa 0,0 l/m 1,9 km/h (1 Bft) O-NO 67 13,2 C 15,5 C 5,8 km/h (2 Bft)
22.08.2019 07:44 25,4 C 20,1 C 15,5 C 15,3 C 57 % 56 % 86 % 1028,1 hPa 0,0 l/m 1,9 km/h (1 Bft) SO 135 13,2 C 15,5 C 3,6 km/h (1 Bft)
22.08.2019 07:42 25,2 C 20,0 C 15,5 C 15,3 C 57 % 56 % 86 % 1028,1 hPa 0,0 l/m 1,8 km/h (1 Bft) O 90 13,2 C 15,5 C 5,8 km/h (2 Bft)
22.08.2019 07:40 25,2 C 19,9 C 15,4 C 15,3 C 57 % 57 % 86 % 1028,0 hPa 0,0 l/m 1,9 km/h (1 Bft) O-NO 67 13,1 C 15,4 C 0,0 km/h (0 Bft)
22.08.2019 07:38 25,2 C 19,7 C 15,4 C 15,4 C 57 % 57 % 86 % 1028,0 hPa 0,0 l/m 2,1 km/h (1 Bft) O-NO 67 13,1 C 15,4 C 4,1 km/h (1 Bft)
22.08.2019 07:36 25,4 C 19,5 C 15,3 C 15,4 C 57 % 57 % 86 % 1028,0 hPa 0,0 l/m 1,9 km/h (1 Bft) NO 45 13,0 C 15,3 C 5,1 km/h (1 Bft)
22.08.2019 07:34 25,4 C 19,3 C 15,3 C 15,4 C 57 % 57 % 85 % 1028,0 hPa 0,0 l/m 1,3 km/h (1 Bft) N-NW 337 12,8 C 15,3 C 6,5 km/h (2 Bft)
22.08.2019 07:32 25,2 C 19,2 C 15,3 C 15,4 C 57 % 57 % 85 % 1028,0 hPa 0,0 l/m 1,0 km/h (0 Bft) N-NO 22 12,8 C 15,3 C 3,9 km/h (1 Bft)
22.08.2019 07:30 25,2 C 18,9 C 15,3 C 15,4 C 57 % 57 % 85 % 1028,0 hPa 0,0 l/m 0,8 km/h (0 Bft) O-SO 112 12,8 C 15,3 C 5,6 km/h (1 Bft)
22.08.2019 07:28 25,2 C 18,8 C 15,3 C 15,3 C 57 % 57 % 85 % 1028,0 hPa 0,0 l/m 0,8 km/h (0 Bft) O-NO 67 12,8 C 15,3 C 2,9 km/h (1 Bft)
22.08.2019 07:26 25,2 C 18,5 C 15,1 C 15,4 C 57 % 57 % 85 % 1028,0 hPa 0,0 l/m 0,5 km/h (0 Bft) O-SO 112 12,6 C 15,1 C 3,6 km/h (1 Bft)
22.08.2019 07:24 25,2 C 18,5 C 15,1 C 15,4 C 57 % 57 % 85 % 1028,0 hPa 0,0 l/m 0,5 km/h (0 Bft) O-SO 112 12,6 C 15,1 C 0,0 km/h (0 Bft)
22.08.2019 07:22 25,4 C 18,2 C 15,0 C 15,3 C 57 % 57 % 85 % 1028,0 hPa 0,0 l/m 0,5 km/h (0 Bft) NO 45 12,5 C 15,0 C 0,0 km/h (0 Bft)
22.08.2019 07:20 25,2 C 17,9 C 15,0 C 15,3 C 57 % 57 % 85 % 1027,9 hPa 0,0 l/m 0,5 km/h (0 Bft) O-NO 67 12,5 C 15,0 C 0,0 km/h (0 Bft)
22.08.2019 07:18 25,2 C 17,6 C 15,0 C 15,2 C 57 % 57 % 85 % 1027,9 hPa 0,0 l/m 0,2 km/h (0 Bft) O-NO 67 12,5 C 15,0 C 0,0 km/h (0 Bft)
22.08.2019 07:16 25,2 C 17,5 C 15,0 C 15,2 C 57 % 57 % 85 % 1027,9 hPa 0,0 l/m 0,2 km/h (0 Bft) O-NO 67 12,5 C 15,0 C 0,0 km/h (0 Bft)
22.08.2019 07:14 25,2 C 17,5 C 15,0 C 15,2 C 57 % 57 % 85 % 1027,9 hPa 0,0 l/m 0,0 km/h (0 Bft) O-NO 67 12,5 C 15,0 C 0,0 km/h (0 Bft)
22.08.2019 07:12 25,2 C 17,4 C 15,0 C 15,2 C 57 % 57 % 85 % 1027,9 hPa 0,0 l/m 0,0 km/h (0 Bft) O-NO 67 12,5 C 15,0 C 0,0 km/h (0 Bft)
22.08.2019 07:10 25,2 C 17,2 C 14,9 C 15,0 C 57 % 57 % 85 % 1027,9 hPa 0,0 l/m 0,0 km/h (0 Bft) NO 45 12,4 C 14,9 C 0,0 km/h (0 Bft)
22.08.2019 07:08 25,2 C 17,0 C 14,9 C 15,0 C 57 % 57 % 85 % 1027,9 hPa 0,0 l/m 0,0 km/h (0 Bft) NO 45 12,4 C 14,9 C 0,0 km/h (0 Bft)
22.08.2019 07:06 25,4 C 16,8 C 14,8 C 15,0 C 57 % 57 % 85 % 1027,9 hPa 0,0 l/m 0,0 km/h (0 Bft) N-NW 337 12,3 C 14,8 C 0,0 km/h (0 Bft)
22.08.2019 07:04 25,2 C 16,7 C 14,8 C 14,9 C 57 % 57 % 85 % 1027,9 hPa 0,0 l/m 0,0 km/h (0 Bft) O 90 12,3 C 14,8 C 0,0 km/h (0 Bft)
22.08.2019 07:02 25,4 C 16,5 C 14,7 C 14,9 C 57 % 57 % 85 % 1027,9 hPa 0,0 l/m 0,0 km/h (0 Bft) O-NO 67 12,2 C 14,7 C 0,0 km/h (0 Bft)
22.08.2019 07:00 25,4 C 16,3 C 14,6 C 14,7 C 57 % 57 % 85 % 1028,1 hPa 0,0 l/m 0,0 km/h (0 Bft) O-SO 112 12,1 C 14,6 C 0,0 km/h (0 Bft)
22.08.2019 06:58 25,2 C 16,2 C 14,5 C 14,8 C 57 % 57 % 85 % 1028,1 hPa 0,0 l/m 0,0 km/h (0 Bft) NO 45 12,0 C 14,5 C 0,0 km/h (0 Bft)
22.08.2019 06:56 25,2 C 16,0 C 14,5 C 15,3 C 57 % 57 % 85 % 1028,1 hPa 0,0 l/m 0,0 km/h (0 Bft) NO 45 12,0 C 14,5 C 0,0 km/h (0 Bft)
22.08.2019 06:54 25,4 C 15,9 C 14,5 C 15,0 C 57 % 59 % 85 % 1028,1 hPa 0,0 l/m 0,0 km/h (0 Bft) W-SW 247 12,0 C 14,5 C 0,0 km/h (0 Bft)
22.08.2019 06:52 25,2 C 15,6 C 14,4 C 14,2 C 57 % 59 % 85 % 1028,1 hPa 0,0 l/m 0,0 km/h (0 Bft) W-SW 247 11,9 C 14,4 C 0,0 km/h (0 Bft)
22.08.2019 06:50 25,4 C 15,6 C 14,3 C 14,1 C 57 % 59 % 85 % 1028,1 hPa 0,0 l/m 0,0 km/h (0 Bft) W-SW 247 11,8 C 14,3 C 0,0 km/h (0 Bft)
22.08.2019 06:48 25,4 C 15,4 C 14,2 C 14,4 C 57 % 59 % 85 % 1028,1 hPa 0,0 l/m 0,0 km/h (0 Bft) W-SW 247 11,7 C 14,2 C 0,0 km/h (0 Bft)
22.08.2019 06:46 25,4 C 15,4 C 14,2 C 14,3 C 57 % 59 % 85 % 1028,1 hPa 0,0 l/m 0,0 km/h (0 Bft) W-SW 247 11,7 C 14,2 C 0,0 km/h (0 Bft)
22.08.2019 06:44 25,4 C 15,3 C 14,2 C 14,0 C 57 % 59 % 85 % 1028,1 hPa 0,0 l/m 0,0 km/h (0 Bft) W-SW 247 11,7 C 14,2 C 0,0 km/h (0 Bft)
22.08.2019 06:42 25,4 C 15,2 C 14,2 C 13,5 C 57 % 59 % 85 % 1028,1 hPa 0,0 l/m 0,0 km/h (0 Bft) W 270 11,7 C 14,2 C 0,0 km/h (0 Bft)
22.08.2019 06:40 25,4 C 15,2 C 14,1 C 13,7 C 57 % 59 % 85 % 1027,6 hPa 0,0 l/m 0,0 km/h (0 Bft) W-SW 247 11,6 C 14,1 C 0,0 km/h (0 Bft)
22.08.2019 06:38 25,2 C 15,2 C 14,1 C 14,6 C 57 % 59 % 85 % 1027,6 hPa 0,0 l/m 0,0 km/h (0 Bft) W 270 11,6 C 14,1 C 0,0 km/h (0 Bft)
22.08.2019 06:36 25,4 C 15,2 C 14,0 C 14,7 C 57 % 59 % 85 % 1027,6 hPa 0,0 l/m 0,2 km/h (0 Bft) S-SO 157 11,5 C 14,0 C 0,0 km/h (0 Bft)
22.08.2019 06:34 25,2 C 15,1 C 14,0 C 14,6 C 57 % 59 % 85 % 1027,6 hPa 0,0 l/m 0,3 km/h (0 Bft) S-SO 157 11,5 C 14,0 C 0,0 km/h (0 Bft)
22.08.2019 06:32 25,2 C 15,1 C 14,0 C 14,7 C 57 % 59 % 84 % 1027,6 hPa 0,0 l/m 0,6 km/h (0 Bft) O-NO 67 11,3 C 14,0 C 0,0 km/h (0 Bft)
22.08.2019 06:30 25,2 C 15,1 C 14,0 C 14,7 C 57 % 59 % 84 % 1027,6 hPa 0,0 l/m 1,0 km/h (0 Bft) O-SO 112 11,3 C 14,0 C 0,0 km/h (0 Bft)
22.08.2019 06:28 25,2 C 15,0 C 14,0 C 14,0 C 57 % 59 % 84 % 1027,6 hPa 0,0 l/m 1,1 km/h (1 Bft) O-NO 67 11,3 C 14,0 C 0,0 km/h (0 Bft)
22.08.2019 06:26 25,2 C 15,0 C 14,0 C 13,8 C 57 % 59 % 84 % 1027,6 hPa 0,0 l/m 1,1 km/h (1 Bft) O-NO 67 11,3 C 14,0 C 0,0 km/h (0 Bft)
22.08.2019 06:24 25,2 C 14,9 C 14,0 C 13,7 C 57 % 59 % 84 % 1027,6 hPa 0,0 l/m 1,3 km/h (1 Bft) O-NO 67 11,3 C 14,0 C 4,1 km/h (1 Bft)
22.08.2019 06:22 25,2 C 14,9 C 14,0 C 13,9 C 57 % 59 % 84 % 1027,6 hPa 0,0 l/m 1,0 km/h (0 Bft) S-SO 157 11,3 C 14,0 C 2,4 km/h (1 Bft)
22.08.2019 06:20 25,4 C 14,9 C 13,8 C 13,9 C 57 % 59 % 85 % 1027,9 hPa 0,0 l/m 0,8 km/h (0 Bft) O-SO 112 11,3 C 13,8 C 4,8 km/h (1 Bft)
22.08.2019 06:18 25,2 C 14,8 C 13,8 C 14,0 C 57 % 59 % 85 % 1027,9 hPa 0,0 l/m 0,6 km/h (0 Bft) O-NO 67 11,3 C 13,8 C 2,7 km/h (1 Bft)
22.08.2019 06:16 25,2 C 14,8 C 13,8 C 13,9 C 57 % 59 % 85 % 1027,9 hPa 0,0 l/m 0,5 km/h (0 Bft) O-SO 112 11,3 C 13,8 C 3,1 km/h (1 Bft)
22.08.2019 06:14 25,2 C 14,8 C 13,8 C 13,8 C 57 % 59 % 84 % 1027,9 hPa 0,0 l/m 0,3 km/h (0 Bft) NO 45 11,1 C 13,8 C 2,9 km/h (1 Bft)
22.08.2019 06:12 25,2 C 14,7 C 13,8 C 13,6 C 57 % 59 % 84 % 1027,9 hPa 0,0 l/m 0,2 km/h (0 Bft) S-SO 157 11,1 C 13,8 C 0,0 km/h (0 Bft)
22.08.2019 06:10 25,2 C 14,7 C 13,8 C 13,5 C 57 % 59 % 84 % 1027,9 hPa 0,0 l/m 0,2 km/h (0 Bft) O-SO 112 11,1 C 13,8 C 0,0 km/h (0 Bft)
22.08.2019 06:08 25,2 C 14,7 C 13,7 C 13,3 C 57 % 59 % 84 % 1027,9 hPa 0,0 l/m 0,2 km/h (0 Bft) O-NO 67 11,0 C 13,7 C 0,0 km/h (0 Bft)
22.08.2019 06:06 25,4 C 14,6 C 13,7 C 13,4 C 57 % 59 % 84 % 1027,9 hPa 0,0 l/m 0,0 km/h (0 Bft) S 180 11,0 C 13,7 C 0,0 km/h (0 Bft)
22.08.2019 06:04 25,2 C 14,6 C 13,7 C 14,1 C 57 % 59 % 84 % 1027,9 hPa 0,0 l/m 0,0 km/h (0 Bft) O-NO 67 11,0 C 13,7 C 0,0 km/h (0 Bft)
22.08.2019 06:02 25,2 C 14,6 C 13,7 C 14,6 C 57 % 59 % 84 % 1027,9 hPa 0,0 l/m 0,0 km/h (0 Bft) NO 45 11,0 C 13,7 C 0,0 km/h (0 Bft)
22.08.2019 06:00 25,4 C 14,6 C 13,7 C 14,5 C 57 % 59 % 84 % 1027,9 hPa 0,0 l/m 0,0 km/h (0 Bft) O-SO 112 11,0 C 13,7 C 0,0 km/h (0 Bft)
22.08.2019 05:58 25,4 C 14,6 C 13,7 C 14,3 C 57 % 59 % 84 % 1027,9 hPa 0,0 l/m 0,0 km/h (0 Bft) O-NO 67 11,0 C 13,7 C 0,0 km/h (0 Bft)
22.08.2019 05:56 25,2 C 14,6 C 13,7 C 14,3 C 57 % 59 % 84 % 1027,9 hPa 0,0 l/m 0,0 km/h (0 Bft) O-SO 112 11,0 C 13,7 C 0,0 km/h (0 Bft)
22.08.2019 05:54 25,2 C 14,6 C 13,6 C 14,2 C 57 % 59 % 84 % 1027,9 hPa 0,0 l/m 0,0 km/h (0 Bft) S-SO 157 10,9 C 13,6 C 2,4 km/h (1 Bft)
22.08.2019 05:52 25,2 C 14,6 C 13,6 C 14,1 C 57 % 59 % 84 % 1027,9 hPa 0,0 l/m 0,0 km/h (0 Bft) O 90 10,9 C 13,6 C 0,0 km/h (0 Bft)
22.08.2019 05:50 25,2 C 14,7 C 13,6 C 14,0 C 57 % 59 % 84 % 1027,9 hPa 0,0 l/m 0,0 km/h (0 Bft) S-SO 157 10,9 C 13,6 C 0,0 km/h (0 Bft)
22.08.2019 05:48 25,4 C 14,7 C 13,7 C 14,0 C 57 % 59 % 84 % 1027,9 hPa 0,0 l/m 0,0 km/h (0 Bft) S 180 11,0 C 13,7 C 0,0 km/h (0 Bft)
22.08.2019 05:46 25,4 C 14,7 C 13,6 C 14,1 C 57 % 59 % 84 % 1027,9 hPa 0,0 l/m 0,0 km/h (0 Bft) S-SO 157 10,9 C 13,6 C 0,0 km/h (0 Bft)
22.08.2019 05:44 25,4 C 14,7 C 13,6 C 14,2 C 57 % 59 % 84 % 1027,9 hPa 0,0 l/m 0,0 km/h (0 Bft) S 180 10,9 C 13,6 C 0,0 km/h (0 Bft)
22.08.2019 05:42 25,4 C 14,7 C 13,6 C 14,0 C 57 % 59 % 84 % 1027,9 hPa 0,0 l/m 0,0 km/h (0 Bft) S 180 10,9 C 13,6 C 2,9 km/h (1 Bft)
22.08.2019 05:40 25,4 C 14,8 C 13,7 C 13,1 C 57 % 59 % 84 % 1027,9 hPa 0,0 l/m 0,0 km/h (0 Bft) O 90 11,0 C 13,7 C 0,0 km/h (0 Bft)
22.08.2019 05:38 25,2 C 14,8 C 13,7 C 12,5 C 57 % 59 % 84 % 1027,9 hPa 0,0 l/m 0,2 km/h (0 Bft) W 270 11,0 C 13,7 C 0,0 km/h (0 Bft)
22.08.2019 05:36 25,4 C 14,8 C 13,8 C 12,2 C 57 % 59 % 84 % 1027,9 hPa 0,0 l/m 0,6 km/h (0 Bft) N-NO 22 11,1 C 13,8 C 0,0 km/h (0 Bft)
22.08.2019 05:34 25,4 C 14,8 C 13,8 C 12,2 C 57 % 59 % 84 % 1027,9 hPa 0,0 l/m 0,8 km/h (0 Bft) N-NO 22 11,1 C 13,8 C 6,0 km/h (2 Bft)
22.08.2019 05:32 25,4 C 14,8 C 13,8 C 12,3 C 57 % 59 % 84 % 1027,9 hPa 0,0 l/m 0,8 km/h (0 Bft) N 360 11,1 C 13,8 C 0,0 km/h (0 Bft)
22.08.2019 05:30 25,4 C 14,9 C 13,8 C 12,4 C 57 % 59 % 84 % 1027,9 hPa 0,0 l/m 0,8 km/h (0 Bft) NO 45 11,1 C 13,8 C 2,4 km/h (1 Bft)
22.08.2019 05:28 25,4 C 14,9 C 13,8 C 12,4 C 57 % 59 % 84 % 1027,9 hPa 0,0 l/m 0,8 km/h (0 Bft) NO 45 11,1 C 13,8 C 4,1 km/h (1 Bft)
22.08.2019 05:26 25,4 C 14,9 C 13,8 C 12,3 C 57 % 59 % 84 % 1027,9 hPa 0,0 l/m 0,3 km/h (0 Bft) O-NO 67 11,1 C 13,8 C 4,6 km/h (1 Bft)
22.08.2019 05:24 25,4 C 14,9 C 13,8 C 12,2 C 57 % 59 % 84 % 1027,9 hPa 0,0 l/m 0,0 km/h (0 Bft) N-NO 22 11,1 C 13,8 C 0,0 km/h (0 Bft)
22.08.2019 05:22 25,4 C 14,9 C 13,8 C 12,5 C 57 % 59 % 84 % 1027,9 hPa 0,0 l/m 0,0 km/h (0 Bft) NO 45 11,1 C 13,8 C 0,0 km/h (0 Bft)
22.08.2019 05:20 25,4 C 14,9 C 13,8 C 13,1 C 57 % 59 % 84 % 1027,8 hPa 0,0 l/m 0,0 km/h (0 Bft) O 90 11,1 C 13,8 C 0,0 km/h (0 Bft)
22.08.2019 05:18 25,4 C 15,0 C 13,8 C 14,3 C 57 % 59 % 84 % 1027,8 hPa 0,0 l/m 0,0 km/h (0 Bft) NO 45 11,1 C 13,8 C 0,0 km/h (0 Bft)
22.08.2019 05:16 25,4 C 15,0 C 14,0 C 14,3 C 57 % 59 % 84 % 1027,8 hPa 0,0 l/m 0,0 km/h (0 Bft) O-SO 112 11,3 C 14,0 C 0,0 km/h (0 Bft)
22.08.2019 05:14 25,4 C 15,0 C 14,0 C 13,7 C 57 % 59 % 84 % 1027,8 hPa 0,0 l/m 0,0 km/h (0 Bft) SO 135 11,3 C 14,0 C 0,0 km/h (0 Bft)
22.08.2019 05:12 25,4 C 15,0 C 14,0 C 13,9 C 57 % 59 % 84 % 1027,8 hPa 0,0 l/m 0,0 km/h (0 Bft) SO 135 11,3 C 14,0 C 0,0 km/h (0 Bft)
22.08.2019 05:10 25,4 C 15,0 C 14,0 C 14,0 C 57 % 59 % 84 % 1027,8 hPa 0,0 l/m 0,2 km/h (0 Bft) O-NO 67 11,3 C 14,0 C 2,7 km/h (1 Bft)
22.08.2019 05:08 25,4 C 15,0 C 14,2 C 14,2 C 57 % 59 % 84 % 1027,8 hPa 0,0 l/m 0,2 km/h (0 Bft) O-SO 112 11,5 C 14,2 C 0,0 km/h (0 Bft)
22.08.2019 05:06 25,4 C 15,1 C 14,2 C 13,6 C 57 % 59 % 84 % 1027,8 hPa 0,0 l/m 0,2 km/h (0 Bft) O-SO 112 11,5 C 14,2 C 0,0 km/h (0 Bft)
22.08.2019 05:04 25,4 C 15,1 C 14,3 C 13,1 C 57 % 59 % 84 % 1027,8 hPa 0,0 l/m 0,2 km/h (0 Bft) O-NO 67 11,6 C 14,3 C 0,0 km/h (0 Bft)
22.08.2019 05:02 25,4 C 15,1 C 14,3 C 13,1 C 57 % 59 % 84 % 1027,8 hPa 0,0 l/m 0,3 km/h (0 Bft) O-NO 67 11,6 C 14,3 C 0,0 km/h (0 Bft)
22.08.2019 05:00 25,4 C 15,1 C 14,3 C 13,2 C 57 % 59 % 84 % 1028,0 hPa 0,0 l/m 0,2 km/h (0 Bft) NO 45 11,6 C 14,3 C 0,0 km/h (0 Bft)
22.08.2019 04:58 25,4 C 15,1 C 14,3 C 13,4 C 57 % 59 % 84 % 1028,0 hPa 0,0 l/m 0,2 km/h (0 Bft) O-NO 67 11,6 C 14,3 C 0,0 km/h (0 Bft)
22.08.2019 04:56 25,4 C 15,1 C 14,3 C 14,2 C 57 % 59 % 84 % 1028,0 hPa 0,0 l/m 0,2 km/h (0 Bft) O-NO 67 11,6 C 14,3 C 0,0 km/h (0 Bft)
22.08.2019 04:54 25,4 C 15,1 C 14,4 C 15,0 C 57 % 59 % 84 % 1028,0 hPa 0,0 l/m 0,2 km/h (0 Bft) O-NO 67 11,7 C 14,4 C 3,6 km/h (1 Bft)
22.08.2019 04:52 25,4 C 15,1 C 14,4 C 15,1 C 57 % 59 % 84 % 1028,0 hPa 0,0 l/m 0,0 km/h (0 Bft) S-SO 157 11,7 C 14,4 C 0,0 km/h (0 Bft)
22.08.2019 04:50 25,4 C 15,1 C 14,4 C 15,1 C 57 % 59 % 84 % 1028,0 hPa 0,0 l/m 0,0 km/h (0 Bft) S 180 11,7 C 14,4 C 0,0 km/h (0 Bft)
22.08.2019 04:48 25,4 C 15,2 C 14,3 C 14,7 C 57 % 59 % 84 % 1028,0 hPa 0,0 l/m 0,0 km/h (0 Bft) S-SO 157 11,6 C 14,3 C 0,0 km/h (0 Bft)
22.08.2019 04:46 25,4 C 15,2 C 14,3 C 14,5 C 57 % 59 % 84 % 1028,0 hPa 0,0 l/m 0,0 km/h (0 Bft) O-SO 112 11,6 C 14,3 C 0,0 km/h (0 Bft)
22.08.2019 04:44 25,4 C 15,2 C 14,3 C 14,3 C 57 % 59 % 84 % 1028,0 hPa 0,0 l/m 0,0 km/h (0 Bft) O-NO 67 11,6 C 14,3 C 0,0 km/h (0 Bft)
22.08.2019 04:42 25,4 C 15,2 C 14,3 C 13,7 C 57 % 59 % 84 % 1028,0 hPa 0,0 l/m 0,0 km/h (0 Bft) O-NO 67 11,6 C 14,3 C 0,0 km/h (0 Bft)
22.08.2019 04:40 25,4 C 15,2 C 14,3 C 13,7 C 57 % 59 % 84 % 1028,0 hPa 0,0 l/m 0,0 km/h (0 Bft) O 90 11,6 C 14,3 C 0,0 km/h (0 Bft)
22.08.2019 04:38 25,4 C 15,2 C 14,4 C 13,2 C 57 % 59 % 84 % 1028,0 hPa 0,0 l/m 0,0 km/h (0 Bft) N-NO 22 11,7 C 14,4 C 0,0 km/h (0 Bft)
22.08.2019 04:36 25,4 C 15,2 C 14,3 C 13,2 C 57 % 59 % 84 % 1028,0 hPa 0,0 l/m 0,0 km/h (0 Bft) N-NO 22 11,6 C 14,3 C 0,0 km/h (0 Bft)
22.08.2019 04:34 25,4 C 15,2 C 14,4 C 13,3 C 57 % 59 % 84 % 1028,0 hPa 0,0 l/m 0,0 km/h (0 Bft) NO 45 11,7 C 14,4 C 0,0 km/h (0 Bft)
22.08.2019 04:32 25,4 C 15,2 C 14,4 C 13,4 C 57 % 59 % 84 % 1028,0 hPa 0,0 l/m 0,0 km/h (0 Bft) W-SW 247 11,7 C 14,4 C 0,0 km/h (0 Bft)
22.08.2019 04:30 25,4 C 15,2 C 14,4 C 13,4 C 57 % 59 % 84 % 1028,0 hPa 0,0 l/m 0,0 km/h (0 Bft) N-NW 337 11,7 C 14,4 C 0,0 km/h (0 Bft)
22.08.2019 04:28 25,4 C 15,2 C 14,4 C 13,5 C 57 % 59 % 84 % 1028,0 hPa 0,0 l/m 0,0 km/h (0 Bft) N-NW 337 11,7 C 14,4 C 0,0 km/h (0 Bft)
22.08.2019 04:26 25,4 C 15,2 C 14,4 C 13,7 C 57 % 59 % 84 % 1028,0 hPa 0,0 l/m 0,0 km/h (0 Bft) O 90 11,7 C 14,4 C 0,0 km/h (0 Bft)
22.08.2019 04:24 25,4 C 15,2 C 14,3 C 13,5 C 57 % 59 % 84 % 1028,0 hPa 0,0 l/m 0,0 km/h (0 Bft) O-NO 67 11,6 C 14,3 C 0,0 km/h (0 Bft)
22.08.2019 04:22 25,4 C 15,2 C 14,3 C 13,4 C 57 % 59 % 84 % 1028,0 hPa 0,0 l/m 0,0 km/h (0 Bft) N-NO 22 11,6 C 14,3 C 0,0 km/h (0 Bft)
22.08.2019 04:20 25,4 C 15,2 C 14,3 C 13,4 C 57 % 59 % 84 % 1028,2 hPa 0,0 l/m 0,0 km/h (0 Bft) N-NW 337 11,6 C 14,3 C 0,0 km/h (0 Bft)
22.08.2019 04:18 25,4 C 15,2 C 14,2 C 13,4 C 57 % 59 % 84 % 1028,2 hPa 0,0 l/m 0,0 km/h (0 Bft) N-NW 337 11,5 C 14,2 C 0,0 km/h (0 Bft)
22.08.2019 04:16 25,4 C 15,2 C 14,2 C 13,5 C 57 % 59 % 84 % 1028,2 hPa 0,0 l/m 0,0 km/h (0 Bft) N-NW 337 11,5 C 14,2 C 0,0 km/h (0 Bft)
22.08.2019 04:14 25,4 C 15,2 C 14,2 C 13,7 C 57 % 59 % 84 % 1028,2 hPa 0,0 l/m 0,0 km/h (0 Bft) N-NW 337 11,5 C 14,2 C 0,0 km/h (0 Bft)
22.08.2019 04:12 25,4 C 15,2 C 14,2 C 13,9 C 57 % 59 % 84 % 1028,2 hPa 0,0 l/m 0,0 km/h (0 Bft) N-NW 337 11,5 C 14,2 C 0,0 km/h (0 Bft)
22.08.2019 04:10 25,4 C 15,2 C 14,2 C 14,4 C 57 % 59 % 84 % 1028,2 hPa 0,0 l/m 0,0 km/h (0 Bft) O-NO 67 11,5 C 14,2 C 0,0 km/h (0 Bft)
22.08.2019 04:08 25,4 C 15,2 C 14,2 C 14,9 C 57 % 59 % 84 % 1028,2 hPa 0,0 l/m 0,0 km/h (0 Bft) O-NO 67 11,5 C 14,2 C 0,0 km/h (0 Bft)
22.08.2019 04:06 25,4 C 15,2 C 14,2 C 15,0 C 57 % 59 % 84 % 1028,2 hPa 0,0 l/m 0,0 km/h (0 Bft) W-SW 247 11,5 C 14,2 C 0,0 km/h (0 Bft)
22.08.2019 04:04 25,4 C 15,2 C 14,2 C 15,3 C 57 % 59 % 84 % 1028,2 hPa 0,0 l/m 0,0 km/h (0 Bft) SO 135 11,5 C 14,2 C 0,0 km/h (0 Bft)
22.08.2019 04:02 25,4 C 15,2 C 14,2 C 15,1 C 57 % 59 % 84 % 1028,2 hPa 0,0 l/m 0,0 km/h (0 Bft) S-SO 157 11,5 C 14,2 C 0,0 km/h (0 Bft)
22.08.2019 04:00 25,4 C 15,2 C 14,1 C 15,0 C 57 % 59 % 84 % 1028,2 hPa 0,0 l/m 0,0 km/h (0 Bft) SO 135 11,4 C 14,1 C 0,0 km/h (0 Bft)
22.08.2019 03:58 25,4 C 15,2 C 14,1 C 15,4 C 57 % 59 % 84 % 1028,2 hPa 0,0 l/m 0,0 km/h (0 Bft) S-SO 157 11,4 C 14,1 C 0,0 km/h (0 Bft)
22.08.2019 03:56 25,4 C 15,2 C 14,2 C 15,4 C 57 % 59 % 84 % 1028,2 hPa 0,0 l/m 0,0 km/h (0 Bft) S-SO 157 11,5 C 14,2 C 0,0 km/h (0 Bft)
22.08.2019 03:54 25,4 C 15,2 C 14,2 C 14,9 C 57 % 59 % 84 % 1028,2 hPa 0,0 l/m 0,0 km/h (0 Bft) S 180 11,5 C 14,2 C 0,0 km/h (0 Bft)
22.08.2019 03:52 25,4 C 15,2 C 14,2 C 14,1 C 57 % 59 % 84 % 1028,2 hPa 0,0 l/m 0,0 km/h (0 Bft) S-SO 157 11,5 C 14,2 C 0,0 km/h (0 Bft)
22.08.2019 03:50 25,4 C 15,2 C 14,2 C 13,9 C 57 % 59 % 84 % 1028,2 hPa 0,0 l/m 0,0 km/h (0 Bft) W 270 11,5 C 14,2 C 0,0 km/h (0 Bft)
22.08.2019 03:48 25,4 C 15,2 C 14,2 C 14,1 C 57 % 59 % 84 % 1028,2 hPa 0,0 l/m 0,2 km/h (0 Bft) W 270 11,5 C 14,2 C 0,0 km/h (0 Bft)
22.08.2019 03:46 25,4 C 15,2 C 14,2 C 14,4 C 57 % 59 % 84 % 1028,2 hPa 0,0 l/m 0,5 km/h (0 Bft) W 270 11,5 C 14,2 C 0,0 km/h (0 Bft)
22.08.2019 03:44 25,4 C 15,2 C 14,2 C 14,6 C 57 % 59 % 84 % 1028,2 hPa 0,0 l/m 0,5 km/h (0 Bft) W 270 11,5 C 14,2 C 3,4 km/h (1 Bft)
22.08.2019 03:42 25,4 C 15,2 C 14,2 C 14,8 C 57 % 59 % 84 % 1028,2 hPa 0,0 l/m 0,5 km/h (0 Bft) W 270 11,5 C 14,2 C 0,0 km/h (0 Bft)
22.08.2019 03:40 25,4 C 15,2 C 14,2 C 14,9 C 57 % 59 % 83 % 1028,0 hPa 0,0 l/m 0,5 km/h (0 Bft) W 270 11,4 C 14,2 C 0,0 km/h (0 Bft)
22.08.2019 03:38 25,4 C 15,2 C 14,2 C 14,8 C 57 % 59 % 83 % 1028,0 hPa 0,0 l/m 0,5 km/h (0 Bft) SW 225 11,4 C 14,2 C 2,4 km/h (1 Bft)
22.08.2019 03:36 25,4 C 15,2 C 14,1 C 14,8 C 57 % 59 % 83 % 1028,0 hPa 0,0 l/m 0,3 km/h (0 Bft) S-SW 202 11,3 C 14,1 C 3,4 km/h (1 Bft)
22.08.2019 03:34 25,4 C 15,2 C 14,1 C 15,3 C 57 % 59 % 83 % 1028,0 hPa 0,0 l/m 0,0 km/h (0 Bft) S 180 11,3 C 14,1 C 0,0 km/h (0 Bft)
22.08.2019 03:32 25,4 C 15,2 C 14,1 C 15,3 C 57 % 59 % 83 % 1028,0 hPa 0,0 l/m 0,0 km/h (0 Bft) S 180 11,3 C 14,1 C 0,0 km/h (0 Bft)
22.08.2019 03:30 25,4 C 15,2 C 14,1 C 15,1 C 57 % 59 % 83 % 1028,0 hPa 0,0 l/m 0,0 km/h (0 Bft) SO 135 11,3 C 14,1 C 0,0 km/h (0 Bft)
22.08.2019 03:28 25,4 C 15,2 C 14,1 C 15,0 C 57 % 59 % 83 % 1028,0 hPa 0,0 l/m 0,0 km/h (0 Bft) SO 135 11,3 C 14,1 C 0,0 km/h (0 Bft)
22.08.2019 03:26 25,4 C 15,1 C 14,1 C 14,4 C 57 % 59 % 83 % 1028,0 hPa 0,0 l/m 0,0 km/h (0 Bft) O-SO 112 11,3 C 14,1 C 0,0 km/h (0 Bft)
22.08.2019 03:24 25,4 C 15,1 C 14,1 C 14,1 C 57 % 59 % 83 % 1028,0 hPa 0,0 l/m 0,0 km/h (0 Bft) SO 135 11,3 C 14,1 C 0,0 km/h (0 Bft)
22.08.2019 03:22 25,4 C 15,1 C 14,1 C 14,3 C 57 % 59 % 83 % 1028,0 hPa 0,0 l/m 0,0 km/h (0 Bft) O-SO 112 11,3 C 14,1 C 0,0 km/h (0 Bft)
22.08.2019 03:20 25,4 C 15,1 C 14,1 C 14,2 C 57 % 59 % 83 % 1028,1 hPa 0,0 l/m 0,0 km/h (0 Bft) S-SO 157 11,3 C 14,1 C 0,0 km/h (0 Bft)
22.08.2019 03:18 25,5 C 15,1 C 14,1 C 14,5 C 57 % 59 % 83 % 1028,1 hPa 0,0 l/m 0,0 km/h (0 Bft) S-SO 157 11,3 C 14,1 C 0,0 km/h (0 Bft)
22.08.2019 03:16 25,5 C 15,1 C 14,1 C 14,9 C 57 % 59 % 83 % 1028,1 hPa 0,0 l/m 0,0 km/h (0 Bft) S-SO 157 11,3 C 14,1 C 0,0 km/h (0 Bft)
22.08.2019 03:14 25,5 C 15,1 C 14,1 C 15,1 C 57 % 59 % 83 % 1028,1 hPa 0,0 l/m 0,0 km/h (0 Bft) W-NW 292 11,3 C 14,1 C 0,0 km/h (0 Bft)
22.08.2019 03:12 25,5 C 15,1 C 14,1 C 15,0 C 57 % 59 % 83 % 1028,1 hPa 0,0 l/m 0,0 km/h (0 Bft) S-SW 202 11,3 C 14,1 C 0,0 km/h (0 Bft)
22.08.2019 03:10 25,5 C 15,0 C 14,0 C 15,0 C 57 % 59 % 83 % 1028,1 hPa 0,0 l/m 0,0 km/h (0 Bft) S 180 11,2 C 14,0 C 0,0 km/h (0 Bft)
22.08.2019 03:08 25,5 C 15,0 C 14,0 C 14,3 C 57 % 59 % 83 % 1028,1 hPa 0,0 l/m 0,0 km/h (0 Bft) SO 135 11,2 C 14,0 C 0,0 km/h (0 Bft)
22.08.2019 03:06 25,5 C 15,0 C 13,8 C 13,8 C 57 % 59 % 84 % 1028,1 hPa 0,0 l/m 0,0 km/h (0 Bft) SO 135 11,1 C 13,8 C 0,0 km/h (0 Bft)
22.08.2019 03:04 25,5 C 15,0 C 13,8 C 13,8 C 57 % 59 % 84 % 1028,1 hPa 0,0 l/m 0,0 km/h (0 Bft) SO 135 11,1 C 13,8 C 0,0 km/h (0 Bft)
22.08.2019 03:02 25,5 C 15,0 C 13,8 C 13,8 C 57 % 59 % 84 % 1028,1 hPa 0,0 l/m 0,0 km/h (0 Bft) SO 135 11,1 C 13,8 C 0,0 km/h (0 Bft)
22.08.2019 03:00 25,5 C 15,0 C 13,8 C 13,3 C 57 % 59 % 84 % 1028,3 hPa 0,0 l/m 0,0 km/h (0 Bft) O-SO 112 11,1 C 13,8 C 0,0 km/h (0 Bft)
22.08.2019 02:58 25,5 C 15,0 C 13,8 C 13,3 C 57 % 59 % 84 % 1028,3 hPa 0,0 l/m 0,0 km/h (0 Bft) SO 135 11,1 C 13,8 C 0,0 km/h (0 Bft)
22.08.2019 02:56 25,5 C 15,0 C 13,8 C 13,3 C 57 % 59 % 84 % 1028,3 hPa 0,0 l/m 0,0 km/h (0 Bft) O-NO 67 11,1 C 13,8 C 0,0 km/h (0 Bft)
22.08.2019 02:54 25,5 C 15,0 C 13,8 C 13,4 C 57 % 59 % 84 % 1028,3 hPa 0,0 l/m 0,0 km/h (0 Bft) NO 45 11,1 C 13,8 C 0,0 km/h (0 Bft)
22.08.2019 02:52 25,5 C 15,0 C 13,8 C 13,7 C 57 % 59 % 84 % 1028,3 hPa 0,0 l/m 0,0 km/h (0 Bft) SO 135 11,1 C 13,8 C 0,0 km/h (0 Bft)
22.08.2019 02:50 25,5 C 15,0 C 13,8 C 14,5 C 57 % 59 % 84 % 1028,3 hPa 0,0 l/m 0,0 km/h (0 Bft) SO 135 11,1 C 13,8 C 0,0 km/h (0 Bft)
22.08.2019 02:48 25,5 C 15,0 C 14,0 C 15,0 C 57 % 59 % 83 % 1028,3 hPa 0,0 l/m 0,0 km/h (0 Bft) S 180 11,2 C 14,0 C 0,0 km/h (0 Bft)
22.08.2019 02:46 25,5 C 15,0 C 13,8 C 15,1 C 57 % 59 % 83 % 1028,3 hPa 0,0 l/m 0,0 km/h (0 Bft) S 180 11,0 C 13,8 C 0,0 km/h (0 Bft)
22.08.2019 02:44 25,5 C 15,0 C 13,8 C 15,0 C 57 % 59 % 83 % 1028,3 hPa 0,0 l/m 0,0 km/h (0 Bft) S 180 11,0 C 13,8 C 0,0 km/h (0 Bft)
22.08.2019 02:42 25,5 C 15,0 C 13,8 C 14,9 C 57 % 59 % 83 % 1028,3 hPa 0,0 l/m 0,0 km/h (0 Bft) S 180 11,0 C 13,8 C 0,0 km/h (0 Bft)
22.08.2019 02:40 25,5 C 15,0 C 13,8 C 14,8 C 57 % 59 % 83 % 1028,5 hPa 0,0 l/m 0,0 km/h (0 Bft) SO 135 11,0 C 13,8 C 0,0 km/h (0 Bft)
22.08.2019 02:38 25,5 C 15,0 C 13,8 C 14,9 C 57 % 59 % 83 % 1028,5 hPa 0,0 l/m 0,0 km/h (0 Bft) S-SO 157 11,0 C 13,8 C 0,0 km/h (0 Bft)
22.08.2019 02:36 25,5 C 15,0 C 13,8 C 14,9 C 57 % 59 % 83 % 1028,5 hPa 0,0 l/m 0,0 km/h (0 Bft) S 180 11,0 C 13,8 C 0,0 km/h (0 Bft)
22.08.2019 02:34 25,5 C 15,0 C 13,8 C 14,8 C 57 % 59 % 83 % 1028,5 hPa 0,0 l/m 0,0 km/h (0 Bft) S-SO 157 11,0 C 13,8 C 0,0 km/h (0 Bft)
22.08.2019 02:32 25,5 C 15,0 C 13,7 C 14,5 C 57 % 59 % 83 % 1028,5 hPa 0,0 l/m 0,0 km/h (0 Bft) S-SO 157 10,9 C 13,7 C 0,0 km/h (0 Bft)
22.08.2019 02:30 25,5 C 15,0 C 13,7 C 14,5 C 57 % 59 % 83 % 1028,5 hPa 0,0 l/m 0,0 km/h (0 Bft) S-SO 157 10,9 C 13,7 C 0,0 km/h (0 Bft)
22.08.2019 02:28 25,5 C 15,0 C 13,7 C 14,7 C 57 % 59 % 83 % 1028,5 hPa 0,0 l/m 0,0 km/h (0 Bft) S-SO 157 10,9 C 13,7 C 0,0 km/h (0 Bft)
22.08.2019 02:26 25,5 C 15,0 C 13,7 C 14,6 C 57 % 59 % 83 % 1028,5 hPa 0,0 l/m 0,0 km/h (0 Bft) S-SO 157 10,9 C 13,7 C 0,0 km/h (0 Bft)
22.08.2019 02:24 25,5 C 15,0 C 13,7 C 14,7 C 57 % 59 % 83 % 1028,5 hPa 0,0 l/m 0,0 km/h (0 Bft) SO 135 10,9 C 13,7 C 0,0 km/h (0 Bft)
22.08.2019 02:22 25,5 C 15,0 C 13,6 C 14,3 C 57 % 59 % 83 % 1028,5 hPa 0,0 l/m 0,0 km/h (0 Bft) S-SO 157 10,8 C 13,6 C 0,0 km/h (0 Bft)
22.08.2019 02:20 25,5 C 15,1 C 13,6 C 14,0 C 57 % 59 % 83 % 1028,6 hPa 0,0 l/m 0,0 km/h (0 Bft) SO 135 10,8 C 13,6 C 0,0 km/h (0 Bft)
22.08.2019 02:18 25,5 C 15,1 C 13,7 C 14,3 C 57 % 59 % 83 % 1028,6 hPa 0,0 l/m 0,0 km/h (0 Bft) O 90 10,9 C 13,7 C 0,0 km/h (0 Bft)
22.08.2019 02:16 25,5 C 15,1 C 13,7 C 14,3 C 57 % 59 % 83 % 1028,6 hPa 0,0 l/m 0,0 km/h (0 Bft) SO 135 10,9 C 13,7 C 0,0 km/h (0 Bft)
22.08.2019 02:14 25,5 C 15,1 C 13,8 C 13,1 C 57 % 59 % 83 % 1028,6 hPa 0,0 l/m 0,0 km/h (0 Bft) O-NO 67 11,0 C 13,8 C 0,0 km/h (0 Bft)
22.08.2019 02:12 25,5 C 15,1 C 13,8 C 12,5 C 57 % 59 % 83 % 1028,6 hPa 0,0 l/m 0,0 km/h (0 Bft) O-SO 112 11,0 C 13,8 C 0,0 km/h (0 Bft)
22.08.2019 02:10 25,5 C 15,1 C 13,8 C 12,5 C 57 % 59 % 83 % 1028,6 hPa 0,0 l/m 0,0 km/h (0 Bft) N-NO 22 11,0 C 13,8 C 0,0 km/h (0 Bft)
22.08.2019 02:08 25,6 C 15,1 C 13,8 C 12,7 C 57 % 59 % 83 % 1028,6 hPa 0,0 l/m 0,0 km/h (0 Bft) O-NO 67 11,0 C 13,8 C 0,0 km/h (0 Bft)
22.08.2019 02:06 25,5 C 15,1 C 13,9 C 13,1 C 57 % 59 % 82 % 1028,6 hPa 0,0 l/m 0,0 km/h (0 Bft) O-SO 112 10,9 C 13,9 C 0,0 km/h (0 Bft)
22.08.2019 02:04 25,6 C 15,1 C 13,9 C 13,5 C 57 % 59 % 82 % 1028,6 hPa 0,0 l/m 0,0 km/h (0 Bft) N-NW 337 10,9 C 13,9 C 0,0 km/h (0 Bft)
22.08.2019 02:02 25,6 C 15,1 C 13,8 C 13,8 C 57 % 59 % 83 % 1028,6 hPa 0,0 l/m 0,0 km/h (0 Bft) N-NW 337 11,0 C 13,8 C 0,0 km/h (0 Bft)
22.08.2019 02:00 25,6 C 15,1 C 13,8 C 14,6 C 57 % 59 % 83 % 1029,1 hPa 0,0 l/m 0,0 km/h (0 Bft) SO 135 11,0 C 13,8 C 0,0 km/h (0 Bft)
22.08.2019 01:58 25,6 C 15,1 C 13,7 C 13,9 C 57 % 59 % 83 % 1029,1 hPa 0,0 l/m 0,0 km/h (0 Bft) SO 135 10,9 C 13,7 C 0,0 km/h (0 Bft)
22.08.2019 01:56 25,6 C 15,1 C 13,6 C 14,0 C 57 % 59 % 83 % 1029,1 hPa 0,0 l/m 0,0 km/h (0 Bft) SO 135 10,8 C 13,6 C 0,0 km/h (0 Bft)
22.08.2019 01:54 25,6 C 15,1 C 13,6 C 14,0 C 57 % 59 % 83 % 1029,1 hPa 0,0 l/m 0,0 km/h (0 Bft) SO 135 10,8 C 13,6 C 0,0 km/h (0 Bft)
22.08.2019 01:52 25,6 C 15,1 C 13,7 C 14,1 C 57 % 59 % 83 % 1029,1 hPa 0,0 l/m 0,0 km/h (0 Bft) SO 135 10,9 C 13,7 C 0,0 km/h (0 Bft)
22.08.2019 01:50 25,6 C 15,2 C 13,7 C 14,1 C 57 % 59 % 83 % 1029,1 hPa 0,0 l/m 0,0 km/h (0 Bft) O-SO 112 10,9 C 13,7 C 0,0 km/h (0 Bft)
22.08.2019 01:48 25,6 C 15,2 C 13,7 C 13,8 C 57 % 59 % 83 % 1029,1 hPa 0,0 l/m 0,0 km/h (0 Bft) SO 135 10,9 C 13,7 C 0,0 km/h (0 Bft)
22.08.2019 01:46 25,6 C 15,2 C 13,7 C 13,5 C 57 % 59 % 83 % 1029,1 hPa 0,0 l/m 0,0 km/h (0 Bft) O-SO 112 10,9 C 13,7 C 0,0 km/h (0 Bft)
22.08.2019 01:44 25,6 C 15,2 C 13,7 C 13,1 C 57 % 59 % 83 % 1029,1 hPa 0,0 l/m 0,0 km/h (0 Bft) O-SO 112 10,9 C 13,7 C 0,0 km/h (0 Bft)
22.08.2019 01:42 25,6 C 15,2 C 13,8 C 13,1 C 57 % 59 % 83 % 1029,1 hPa 0,0 l/m 0,0 km/h (0 Bft) SW 225 11,0 C 13,8 C 0,0 km/h (0 Bft)
22.08.2019 01:40 25,6 C 15,2 C 13,8 C 13,8 C 57 % 59 % 83 % 1029,2 hPa 0,0 l/m 0,0 km/h (0 Bft) SW 225 11,0 C 13,8 C 0,0 km/h (0 Bft)
22.08.2019 01:38 25,6 C 15,2 C 13,8 C 14,7 C 57 % 59 % 83 % 1029,2 hPa 0,0 l/m 0,0 km/h (0 Bft) SW 225 11,0 C 13,8 C 0,0 km/h (0 Bft)
22.08.2019 01:36 25,6 C 15,2 C 13,8 C 14,6 C 57 % 59 % 83 % 1029,2 hPa 0,0 l/m 0,0 km/h (0 Bft) SW 225 11,0 C 13,8 C 0,0 km/h (0 Bft)
22.08.2019 01:34 25,6 C 15,2 C 13,8 C 14,2 C 57 % 59 % 83 % 1029,2 hPa 0,0 l/m 0,0 km/h (0 Bft) SW 225 11,0 C 13,8 C 0,0 km/h (0 Bft)
22.08.2019 01:32 25,6 C 15,2 C 13,7 C 14,3 C 57 % 59 % 82 % 1029,2 hPa 0,0 l/m 0,0 km/h (0 Bft) S-SW 202 10,7 C 13,7 C 0,0 km/h (0 Bft)
22.08.2019 01:30 25,6 C 15,3 C 13,7 C 14,4 C 57 % 59 % 82 % 1029,2 hPa 0,0 l/m 0,0 km/h (0 Bft) S-SO 157 10,7 C 13,7 C 0,0 km/h (0 Bft)
22.08.2019 01:28 25,6 C 15,3 C 13,7 C 14,1 C 57 % 59 % 82 % 1029,2 hPa 0,0 l/m 0,0 km/h (0 Bft) SO 135 10,7 C 13,7 C 0,0 km/h (0 Bft)
22.08.2019 01:26 25,6 C 15,3 C 13,7 C 14,9 C 57 % 59 % 82 % 1029,2 hPa 0,0 l/m 0,2 km/h (0 Bft) SO 135 10,7 C 13,7 C 0,0 km/h (0 Bft)
22.08.2019 01:24 25,6 C 15,3 C 13,7 C 15,2 C 57 % 59 % 82 % 1029,2 hPa 0,0 l/m 0,2 km/h (0 Bft) S 180 10,7 C 13,7 C 0,0 km/h (0 Bft)
22.08.2019 01:22 25,6 C 15,3 C 13,7 C 15,2 C 57 % 59 % 82 % 1029,2 hPa 0,0 l/m 0,2 km/h (0 Bft) S-SO 157 10,7 C 13,7 C 0,0 km/h (0 Bft)
22.08.2019 01:20 25,6 C 15,3 C 13,7 C 15,1 C 57 % 59 % 82 % 1029,6 hPa 0,0 l/m 0,2 km/h (0 Bft) S-SO 157 10,7 C 13,7 C 0,0 km/h (0 Bft)
22.08.2019 01:18 25,6 C 15,3 C 13,7 C 14,8 C 57 % 59 % 82 % 1029,6 hPa 0,0 l/m 0,2 km/h (0 Bft) S 180 10,7 C 13,7 C 0,0 km/h (0 Bft)
22.08.2019 01:16 25,6 C 15,3 C 13,7 C 14,6 C 57 % 59 % 82 % 1029,6 hPa 0,0 l/m 0,2 km/h (0 Bft) S-SO 157 10,7 C 13,7 C 0,0 km/h (0 Bft)
22.08.2019 01:14 25,6 C 15,3 C 13,7 C 14,6 C 57 % 59 % 82 % 1029,6 hPa 0,0 l/m 0,0 km/h (0 Bft) S 180 10,7 C 13,7 C 0,0 km/h (0 Bft)
22.08.2019 01:12 25,6 C 15,3 C 13,6 C 14,6 C 57 % 59 % 82 % 1029,6 hPa 0,0 l/m 0,0 km/h (0 Bft) S 180 10,6 C 13,6 C 0,0 km/h (0 Bft)
22.08.2019 01:10 25,6 C 15,3 C 13,6 C 14,5 C 57 % 59 % 82 % 1029,6 hPa 0,0 l/m 0,0 km/h (0 Bft) S-SO 157 10,6 C 13,6 C 0,0 km/h (0 Bft)
22.08.2019 01:08 25,6 C 15,3 C 13,6 C 14,6 C 57 % 59 % 82 % 1029,6 hPa 0,0 l/m 0,0 km/h (0 Bft) S-SO 157 10,6 C 13,6 C 0,0 km/h (0 Bft)
22.08.2019 01:06 25,6 C 15,4 C 13,5 C 14,7 C 57 % 59 % 82 % 1029,6 hPa 0,0 l/m 0,0 km/h (0 Bft) SW 225 10,5 C 13,5 C 0,0 km/h (0 Bft)
22.08.2019 01:04 25,6 C 15,4 C 13,4 C 14,7 C 57 % 59 % 82 % 1029,6 hPa 0,0 l/m 0,0 km/h (0 Bft) W 270 10,4 C 13,4 C 0,0 km/h (0 Bft)
22.08.2019 01:02 25,6 C 15,4 C 13,4 C 14,7 C 57 % 59 % 82 % 1029,6 hPa 0,0 l/m 0,0 km/h (0 Bft) SO 135 10,4 C 13,4 C 0,0 km/h (0 Bft)
22.08.2019 01:00 25,6 C 15,4 C 13,4 C 14,7 C 57 % 59 % 82 % 1029,3 hPa 0,0 l/m 0,0 km/h (0 Bft) SO 135 10,4 C 13,4 C 0,0 km/h (0 Bft)
22.08.2019 00:58 25,7 C 15,4 C 13,4 C 14,5 C 57 % 59 % 82 % 1029,3 hPa 0,0 l/m 0,0 km/h (0 Bft) SO 135 10,4 C 13,4 C 0,0 km/h (0 Bft)
22.08.2019 00:56 25,7 C 15,4 C 13,4 C 13,9 C 57 % 59 % 82 % 1029,3 hPa 0,0 l/m 0,0 km/h (0 Bft) SO 135 10,4 C 13,4 C 0,0 km/h (0 Bft)
22.08.2019 00:54 25,7 C 15,4 C 13,4 C 12,8 C 57 % 59 % 82 % 1029,3 hPa 0,0 l/m 0,0 km/h (0 Bft) O 90 10,4 C 13,4 C 0,0 km/h (0 Bft)
22.08.2019 00:52 25,7 C 15,5 C 13,4 C 12,4 C 57 % 59 % 82 % 1029,3 hPa 0,0 l/m 0,0 km/h (0 Bft) O 90 10,4 C 13,4 C 0,0 km/h (0 Bft)
22.08.2019 00:50 25,7 C 15,5 C 13,4 C 12,3 C 57 % 59 % 82 % 1029,3 hPa 0,0 l/m 0,0 km/h (0 Bft) N-NW 337 10,4 C 13,4 C 0,0 km/h (0 Bft)
22.08.2019 00:48 25,7 C 15,5 C 13,3 C 12,4 C 57 % 59 % 82 % 1029,3 hPa 0,0 l/m 0,0 km/h (0 Bft) O-NO 67 10,3 C 13,3 C 0,0 km/h (0 Bft)
22.08.2019 00:46 25,7 C 15,5 C 13,3 C 12,4 C 57 % 60 % 82 % 1029,3 hPa 0,0 l/m 0,0 km/h (0 Bft) O-NO 67 10,3 C 13,3 C 0,0 km/h (0 Bft)
22.08.2019 00:44 25,7 C 15,5 C 13,4 C 12,3 C 57 % 60 % 82 % 1029,3 hPa 0,0 l/m 0,0 km/h (0 Bft) O-NO 67 10,4 C 13,4 C 0,0 km/h (0 Bft)
22.08.2019 00:42 25,7 C 15,5 C 13,4 C 12,3 C 57 % 60 % 82 % 1029,3 hPa 0,0 l/m 0,0 km/h (0 Bft) O-NO 67 10,4 C 13,4 C 0,0 km/h (0 Bft)
22.08.2019 00:40 25,7 C 15,5 C 13,5 C 12,4 C 57 % 60 % 82 % 1029,6 hPa 0,0 l/m 0,0 km/h (0 Bft) O-NO 67 10,5 C 13,5 C 0,0 km/h (0 Bft)
22.08.2019 00:38 25,7 C 15,6 C 13,5 C 12,4 C 57 % 60 % 82 % 1029,6 hPa 0,0 l/m 0,0 km/h (0 Bft) O-NO 67 10,5 C 13,5 C 0,0 km/h (0 Bft)
22.08.2019 00:36 25,7 C 15,6 C 13,5 C 12,4 C 57 % 60 % 82 % 1029,6 hPa 0,0 l/m 0,0 km/h (0 Bft) N-NO 22 10,5 C 13,5 C 0,0 km/h (0 Bft)
22.08.2019 00:34 25,7 C 15,6 C 13,5 C 12,3 C 57 % 60 % 81 % 1029,6 hPa 0,0 l/m 0,0 km/h (0 Bft) O-NO 67 10,3 C 13,5 C 0,0 km/h (0 Bft)
22.08.2019 00:32 25,8 C 15,6 C 13,5 C 12,2 C 57 % 60 % 81 % 1029,6 hPa 0,0 l/m 0,0 km/h (0 Bft) N-NO 22 10,3 C 13,5 C 0,0 km/h (0 Bft)
22.08.2019 00:30 25,8 C 15,6 C 13,5 C 12,3 C 57 % 60 % 81 % 1029,6 hPa 0,0 l/m 0,0 km/h (0 Bft) NO 45 10,3 C 13,5 C 0,0 km/h (0 Bft)
22.08.2019 00:28 25,8 C 15,6 C 13,5 C 12,4 C 57 % 60 % 81 % 1029,6 hPa 0,0 l/m 0,0 km/h (0 Bft) O-NO 67 10,3 C 13,5 C 0,0 km/h (0 Bft)
22.08.2019 00:26 25,8 C 15,6 C 13,5 C 12,4 C 57 % 60 % 81 % 1029,6 hPa 0,0 l/m 0,0 km/h (0 Bft) O-NO 67 10,3 C 13,5 C 0,0 km/h (0 Bft)
22.08.2019 00:24 25,8 C 15,7 C 13,4 C 12,6 C 57 % 60 % 81 % 1029,6 hPa 0,0 l/m 0,0 km/h (0 Bft) O-NO 67 10,2 C 13,4 C 0,0 km/h (0 Bft)
22.08.2019 00:22 25,8 C 15,7 C 13,5 C 12,5 C 57 % 60 % 81 % 1029,6 hPa 0,0 l/m 0,0 km/h (0 Bft) O-SO 112 10,3 C 13,5 C 0,0 km/h (0 Bft)
22.08.2019 00:20 25,8 C 15,7 C 13,6 C 12,5 C 57 % 60 % 81 % 1029,6 hPa 0,0 l/m 0,0 km/h (0 Bft) O-NO 67 10,4 C 13,6 C 0,0 km/h (0 Bft)
22.08.2019 00:18 25,8 C 15,7 C 13,6 C 12,6 C 57 % 60 % 81 % 1029,6 hPa 0,0 l/m 0,0 km/h (0 Bft) O-NO 67 10,4 C 13,6 C 0,0 km/h (0 Bft)
22.08.2019 00:16 25,8 C 15,7 C 13,6 C 12,7 C 57 % 60 % 81 % 1029,6 hPa 0,0 l/m 0,0 km/h (0 Bft) O-NO 67 10,4 C 13,6 C 0,0 km/h (0 Bft)
22.08.2019 00:14 25,8 C 15,8 C 13,7 C 12,7 C 57 % 60 % 81 % 1029,6 hPa 0,0 l/m 0,0 km/h (0 Bft) N-NO 22 10,5 C 13,7 C 0,0 km/h (0 Bft)
22.08.2019 00:12 25,8 C 15,8 C 13,7 C 12,7 C 57 % 60 % 81 % 1029,6 hPa 0,0 l/m 0,0 km/h (0 Bft) N-NO 22 10,5 C 13,7 C 0,0 km/h (0 Bft)
22.08.2019 00:10 25,9 C 15,8 C 13,7 C 12,7 C 57 % 60 % 81 % 1029,6 hPa 0,0 l/m 0,0 km/h (0 Bft) N-NO 22 10,5 C 13,7 C 0,0 km/h (0 Bft)
22.08.2019 00:08 25,9 C 15,8 C 13,7 C 12,7 C 57 % 60 % 81 % 1029,6 hPa 0,0 l/m 0,0 km/h (0 Bft) N-NW 337 10,5 C 13,7 C 0,0 km/h (0 Bft)
22.08.2019 00:06 25,9 C 15,8 C 13,7 C 12,6 C 57 % 60 % 81 % 1029,6 hPa 0,0 l/m 0,0 km/h (0 Bft) N-NO 22 10,5 C 13,7 C 0,0 km/h (0 Bft)
22.08.2019 00:04 25,9 C 15,8 C 13,7 C 12,7 C 57 % 60 % 81 % 1029,6 hPa 0,0 l/m 0,0 km/h (0 Bft) O-NO 67 10,5 C 13,7 C 0,0 km/h (0 Bft)
22.08.2019 00:02 25,9 C 15,8 C 13,7 C 12,8 C 57 % 60 % 81 % 1029,6 hPa 0,0 l/m 0,0 km/h (0 Bft) O-NO 67 10,5 C 13,7 C 0,0 km/h (0 Bft)
22.08.2019 00:00 25,9 C 15,9 C 13,7 C 13,1 C 57 % 60 % 81 % 1029,9 hPa 0,0 l/m 0,0 km/h (0 Bft) N-NO 22 10,5 C 13,7 C 0,0 km/h (0 Bft)
_ Min-Zeit 05:38 05:52 00:46 00:32 10:14 15:34 15:36 15:42 - 00:00 - - 00:24 00:46 00:00
Minimum _ 25,2 C 14,6 C 13,3 C 12,2 C 56 % 50 % 61 % 1026,6 hPa - 0,0 km/h (0 Bft) - - 10,2 C 13,3 C 0,0 km/h (0 Bft)
_ Max-Zeit 00:00 15:38 15:34 15:34 00:00 00:00 07:36 00:00 00:00 10:06 - - 15:34 15:34 10:34
Maximum _ 25,9 C 28,9 C 22,6 C 27,2 C 57 % 60 % 86 % 1029,9 hPa 0,0 l/m 3,4 km/h
O-NO (1 Bft)
- - 15,7 C 22,6 C 17,6 km/h
NO (3 Bft)
Durchschnitt _ 25,4 C 20,1 C 16,8 C 17,6 C 57 % 56 % 77 % 1027,9 hPa #0,0 l/m 1,0 km/h (0 Bft) O-NO - 12,6 C 16,8 C 2,3 km/h (1 Bft)